[{"header": {"dx": 0.06612293990616946, "dy": 0.0552356325346848, "nx": 98, "ny": 59, "la1": 35.046912555036876, "la2": 31.78801023549047, "lo1": -121.43107172385933, "lo2": -114.95102361305473, "refTime": "2026040918", "parameterCategory": 1, "parameterNumber": 2}, "data": [13.7, 13.7, 13.7, 13.7, 13.7, 13.7, 13.7, 13.7, 13.7, 13.7, 13.59, 11.4, 12.35, 11.02, 10.28, 10.73, 10.73, 10.73, 10.73, 10.28, 9.39, 9.39, 8.67, 7.44, 5.69, 7.15, -6.26, -4.43, -4.43, -4.43, -4.74, -3.76, -3.76, -2.49, -1.32, 0.0, 0.0, 1.73, 4.22, 5.69, 7.6, 8.43, 9.97, 10.79, 12.13, 13.58, 15.2, 16.1, 16.64, 15.12, 12.71, 11.57, 11.18, 10.73, 10.69, 10.58, 10.84, 11.03, 11.03, 11.11, 11.11, 11.11, 10.84, 10.84, 11.28, 11.28, 11.33, 11.76, 11.33, 12.24, 12.2, 11.71, 11.21, 10.78, 9.85, 9.64, 10.66, 11.55, 12.96, 12.52, 9.97, 5.06, 2.6, 4.11, 4.43, 5.81, 8.05, 8.49, 8.49, 8.87, 10.2, 11.18, 11.06, 11.09, 10.41, 9.62, 6.87, 6.58, 13.28, 13.7, 13.7, 13.7, 13.19, 13.19, 13.59, 14.11, 13.19, 13.19, 11.99, 12.58, 11.4, 10.18, 11.28, 11.18, 10.28, 11.62, 10.28, 9.83, 10.28, 10.28, 9.39, 8.0, 3.0, 0.0, 0.0, -4.74, -3.0, -3.72, -3.0, -2.8, -2.16, -1.14, 0.0, 0.0, 0.0, 0.0, 1.67, 4.0, 7.87, 9.3, 10.79, 11.17, 14.09, 15.53, 17.59, 17.33, 16.66, 13.34, 11.57, 11.18, 11.18, 10.73, 10.6, 10.84, 10.6, 11.11, 11.11, 11.11, 11.11, 11.11, 10.89, 11.33, 11.28, 11.49, 11.49, 11.76, 11.8, 12.24, 12.68, 12.2, 11.28, 11.02, 10.56, 9.68, 11.13, 11.55, 12.96, 12.52, 9.97, 5.06, 2.6, 4.11, 4.43, 5.81, 8.05, 8.49, 8.49, 8.87, 10.2, 11.18, 11.06, 11.09, 10.41, 9.62, 6.87, 6.58, 13.28, 13.7, 13.7, 13.7, 13.19, 13.19, 13.59, 13.59, 12.16, 11.44, 11.2, 9.55, 10.79, 11.03, 9.6, 10.18, 10.6, 11.06, 11.02, 11.18, 9.83, 10.73, 11.18, 10.28, 6.32, 0.0, 0.0, 0.0, 0.0, 0.0, 0.0, 0.0, 0.0, 0.0, 1.1, 0.0, 0.0, 0.0, 1.33, 3.25, 6.76, 10.43, 12.57, 14.88, 16.75, 18.26, 19.6, 18.25, 13.41, 10.73, 10.28, 10.24, 10.68, 10.56, 10.41, 10.6, 10.68, 11.11, 11.11, 11.18, 11.18, 11.18, 10.68, 11.33, 11.33, 11.33, 11.8, 11.8, 11.8, 12.27, 12.71, 12.68, 12.37, 11.14, 10.69, 10.25, 10.25, 13.41, 13.86, 13.41, 10.14, 7.2, 5.37, 3.0, 0.0, 5.06, 7.63, 8.33, 8.6, 9.54, 12.14, 12.96, 12.39, 11.45, 10.8, 8.93, 7.21, 6.64, 13.28, 13.28, 13.7, 13.7, 13.19, 13.19, 13.59, 12.16, 11.8, 11.09, 9.66, 9.2, 11.21, 10.0, 10.0, 9.3, 10.4, 11.09, 11.61, 11.06, 11.18, 10.28, 11.18, 11.62, 10.52, 8.8, 0.0, 0.0, 0.0, 2.4, 2.69, 4.96, 6.32, 7.44, 6.32, 4.2, 1.93, 2.19, 2.82, 5.45, 8.93, 12.56, 14.29, 15.46, 15.87, 16.05, 15.15, 11.18, 10.25, 10.25, 9.72, 10.58, 9.97, 10.41, 10.18, 10.68, 11.11, 11.18, 11.18, 11.36, 11.18, 11.18, 11.11, 11.18, 11.18, 11.61, 11.61, 11.71, 12.01, 12.62, 13.62, 14.62, 14.71, 12.52, 10.28, 10.28, 10.28, 13.41, 15.65, 13.31, 8.43, 5.94, 6.4, 4.43, 3.6, 6.32, 8.0, 7.28, 8.0, 11.5, 13.75, 12.96, 11.91, 10.38, 7.81, 8.18, 7.81, 6.98, 13.28, 13.28, 13.7, 13.7, 13.7, 13.19, 13.59, 12.16, 11.8, 11.09, 9.66, 9.2, 10.79, 10.6, 9.6, 9.67, 9.46, 10.48, 11.09, 11.09, 12.27, 10.41, 10.41, 11.28, 10.52, 10.6, 6.95, 2.97, 0.0, 0.0, 2.83, 8.18, 11.4, 11.46, 10.96, 10.0, 7.9, 5.8, 5.49, 8.2, 9.89, 12.33, 12.0, 11.72, 12.04, 11.88, 11.58, 11.18, 10.73, 10.7, 11.14, 11.05, 11.05, 10.89, 11.36, 11.36, 11.36, 11.36, 11.8, 11.36, 11.36, 11.18, 11.18, 11.61, 11.37, 12.04, 12.04, 11.87, 12.72, 13.23, 14.36, 15.38, 15.97, 15.2, 12.52, 9.36, 9.79, 11.62, 14.23, 13.53, 6.51, 6.88, 6.0, 5.06, 4.22, 6.79, 8.3, 8.0, 10.4, 13.28, 13.15, 12.07, 9.6, 6.32, 7.33, 8.4, 8.0, 7.67, 13.28, 13.28, 13.28, 13.7, 13.7, 13.19, 13.59, 11.8, 11.8, 9.8, 9.66, 8.23, 10.38, 9.96, 10.0, 9.7, 8.93, 9.27, 9.82, 10.19, 10.87, 10.8, 13.01, 12.3, 11.45, 11.71, 11.03, 10.0, 7.59, 0.0, 2.97, 6.64, 9.13, 11.95, 13.33, 13.41, 12.96, 13.86, 4.23, 2.66, 7.2, 10.12, 10.87, 11.2, 11.87, 11.99, 11.88, 11.46, 11.58, 11.18, 11.18, 10.73, 10.7, 10.7, 11.15, 11.59, 11.51, 11.51, 11.95, 11.95, 11.36, 10.89, 11.11, 11.61, 12.04, 12.09, 12.04, 11.61, 12.3, 13.23, 13.92, 13.92, 15.34, 16.37, 15.65, 13.86, 8.9, 8.49, 8.49, 11.71, 6.57, 6.21, 5.95, 5.37, 5.03, 6.63, 8.4, 12.04, 14.11, 13.86, 11.87, 6.94, 3.49, 4.37, 7.33, 8.4, 8.48, 9.55, 13.28, 13.28, 13.28, 13.7, 13.7, 13.7, 11.8, 11.8, 10.12, 9.8, 8.53, 6.95, 8.58, 9.6, 11.21, 10.27, 10.48, 10.19, 9.5, 10.01, 11.33, 13.39, 14.64, 15.65, 15.2, 14.75, 15.2, 13.57, 12.3, 10.73, 7.59, 5.21, 7.87, 9.04, 11.35, 13.77, 14.3, 13.86, 13.86, -13.41, 14.3, 12.96, 13.41, 13.41, 14.75, 12.96, 12.44, 11.57, 11.44, 11.98, 11.62, 10.73, 11.18, 11.18, 11.62, 11.62, 11.59, 11.59, 11.51, 11.95, 11.33, 10.89, 11.33, 11.8, 11.8, 12.09, 12.27, 11.8, 12.27, 13.18, 13.65, 13.44, 13.49, 15.07, 16.49, 15.58, 13.86, 8.49, 8.94, 9.79, 6.99, 7.07, 7.81, 7.68, 7.59, 8.22, 10.87, 13.32, 14.3, 12.71, 10.01, 3.82, 2.54, 5.31, 7.67, 8.48, 9.33, 9.96, 12.87, 13.28, 13.28, 13.28, 13.7, 12.65, 12.65, 11.8, 11.17, 8.38, 5.75, 5.06, 6.17, 8.73, 10.73, 9.09, 10.24, 10.99, 10.37, 11.37, 12.25, 12.85, 13.34, 15.65, 15.2, 15.2, 15.18, 14.39, 11.8, 13.01, 12.07, 11.45, 11.87, 12.52, 11.18, 12.52, 12.96, 11.18, 3.68, -2.82, -0.0, -0.0, 7.2, 12.01, 12.87, 12.27, 10.88, 11.11, 11.62, 12.07, 10.73, 11.18, 11.62, 11.62, 11.62, 11.62, 11.62, 11.59, 11.59, 11.59, 11.49, 10.6, 11.05, 11.06, 11.51, 11.96, 12.41, 11.59, 11.59, 12.41, 12.86, 13.31, 13.75, 14.18, 15.05, 15.15, 12.92, 12.07, 12.52, 14.26, 15.39, 11.09, 8.8, 8.93, 9.27, 10.55, 10.87, 12.89, 12.96, 11.61, 9.3, 3.91, 3.91, 7.28, 8.06, 8.38, 9.7, 9.64, 13.15, 13.57, 13.57, 13.28, 12.65, 12.65, 12.65, 11.52, 11.17, 9.17, 6.45, 5.77, 6.67, 7.19, 8.01, 8.01, 9.17, 10.73, 10.73, 10.18, 10.47, 11.99, 13.53, 13.96, 12.88, 11.18, 9.83, 12.87, 14.53, 14.03, 13.44, 10.75, 8.43, 9.8, 11.2, 11.51, 11.18, 7.9, -0.0, -0.0, -0.0, 2.89, 5.48, 6.44, 7.26, 7.9, 9.42, 10.0, 9.4, 10.18, 11.51, 10.52, 11.57, 11.57, 11.62, 11.62, 11.62, 11.18, 11.62, 11.62, 11.18, 10.73, 10.28, 10.28, 10.7, 11.14, 12.04, 11.59, 10.7, 11.15, 12.49, 13.39, 14.3, 14.75, 14.3, 13.41, 11.62, 11.62, 13.82, 16.05, 16.31, 13.39, 8.18, 6.98, 8.03, 9.67, 11.09, 11.18, 10.73, 9.6, 6.7, 5.43, 6.0, 7.63, 8.38, 8.38, 9.7, 9.11, 13.15, 13.15, 13.57, 13.57, 13.19, 12.65, 12.65, 11.52, 10.12, 8.3, 7.28, 7.78, 8.53, 9.48, 9.02, 7.11, 7.58, 8.85, 10.43, 8.38, 8.1, 8.1, 10.82, 12.27, 12.27, 11.4, 8.49, 10.41, 13.7, 13.28, 10.43, 3.24, -0.0, 5.15, 7.24, 10.38, 7.81, 1.33, -0.0, 1.75, 2.95, 5.8, 5.0, 5.86, 6.01, 6.52, 6.91, 9.2, 10.21, 9.13, 9.42, 10.12, 10.68, 11.18, 11.62, 11.62, 11.59, 11.49, 11.49, 11.58, 11.14, 10.28, 10.28, 8.29, 9.21, 10.58, 11.49, 11.15, 11.62, 11.59, 12.48, 13.32, 14.22, 14.65, 14.06, 12.71, 11.33, 11.28, 11.8, 14.62, 17.26, 16.05, 10.91, 5.37, 5.69, 7.33, 9.2, 9.89, 10.28, 8.94, 6.51, 6.51, 6.64, 7.6, 8.49, 9.39, 10.14, 8.0, 13.15, 13.15, 13.57, 13.99, 13.19, 13.19, 13.19, 12.27, 10.99, 9.48, 8.44, 9.13, 10.82, 11.97, 12.5, 10.86, 11.06, 11.06, 12.73, 14.75, 13.95, 13.24, 13.05, 12.27, 13.19, 12.96, 10.28, 9.2, 10.37, 11.09, 9.17, 2.13, 1.98, 4.15, 6.98, 9.66, 6.97, 3.65, 2.82, 3.97, 3.97, 5.46, 6.42, 5.46, 6.64, 6.63, 7.07, 7.95, 8.29, 8.73, 9.21, 9.24, 9.79, 10.28, 10.73, 11.14, 11.49, 11.71, 11.45, 11.21, 11.18, 9.04, 6.18, 7.64, 8.6, 10.08, 11.02, 12.03, 12.03, 11.45, 11.79, 12.14, 13.49, 13.39, 12.87, 13.05, 12.1, 11.34, 11.76, 13.01, 15.02, 15.87, 14.42, 9.96, 4.96, 4.47, 6.63, 7.6, 9.74, 8.49, 6.26, 7.15, 6.71, 6.71, 8.05, 10.28, 9.83, 7.89, 13.15, 13.15, 13.57, 13.19, 13.19, 13.19, 13.19, 12.27, 10.99, 10.18, 9.48, 9.8, 11.52, 12.6, 12.45, 12.09, 12.37, 14.7, 16.04, 16.99, 16.54, 16.09, 15.65, 16.09, 13.41, 12.83, 12.04, 6.7, 6.8, 6.0, 7.6, 4.74, 3.45, 2.32, 5.52, 5.29, 5.7, 4.22, 4.22, 5.15, 5.37, 4.87, 5.21, 4.2, 4.0, 5.03, 6.79, 7.6, 7.89, 8.82, 8.29, 8.77, 8.77, 9.24, 9.35, 9.39, 10.28, 11.78, 11.5, 10.28, 1.26, 1.84, 3.81, 5.9, 7.74, 9.2, 10.4, 11.71, 11.18, 10.78, 10.23, 10.87, 10.9, 11.04, 10.94, 11.77, 11.6, 10.94, 11.2, 12.6, 13.59, 13.33, 12.42, 12.27, 5.95, 4.2, 4.96, 7.33, 7.67, 8.48, 7.52, 7.52, 7.15, 6.64, 8.43, 10.2, 9.83, 7.5, 13.15, 13.15, 13.57, 13.19, 13.19, 13.19, 13.19, 11.9, 12.42, 11.28, 11.09, 10.77, 11.52, 12.65, 14.53, 14.79, 14.22, 13.41, 12.96, 13.39, 13.39, 13.34, 13.28, 13.35, 11.95, 11.95, 11.4, 10.47, 8.74, 7.12, 6.71, 6.45, 4.89, 3.49, 2.32, 2.32, 3.45, 4.75, 5.37, 5.84, 5.84, 4.58, 4.2, 2.83, 2.06, 3.6, 3.6, 6.01, 6.79, 7.89, 7.12, 7.85, 8.06, 6.44, 7.67, 6.64, 8.05, 10.08, 5.2, -4.75, -0.85, 1.76, 3.49, 3.81, 5.46, 7.13, 8.6, 9.34, 9.77, 11.28, 11.18, 9.8, 8.12, 8.35, 9.08, 9.5, 10.55, 10.48, 11.2, 10.8, 10.41, 11.53, 12.42, 13.28, 8.85, 6.21, 4.8, 5.06, 6.95, 7.28, 7.28, 6.79, 7.31, 6.94, 8.29, 9.6, 7.98, 7.15, 13.15, 13.15, 13.15, 12.79, 13.19, 13.15, 13.15, 12.42, 12.42, 11.64, 11.44, 11.29, 12.09, 12.65, 14.39, 15.07, 15.71, 14.99, 14.73, 14.3, 14.3, 14.3, 14.74, 15.58, 15.58, 15.5, 14.07, 14.05, 13.12, 12.48, 11.18, 9.83, 8.33, 5.37, 4.43, 3.76, 3.91, 5.59, 5.95, 6.32, 6.32, 4.47, 4.6, 2.71, -0.0, 2.39, 4.14, 5.9, 8.58, 8.58, 9.13, 9.96, 10.73, 6.2, 5.6, 5.2, 7.51, 9.26, 10.73, -2.99, -1.62, -0.0, 1.45, 1.39, 2.7, 4.4, 5.64, 6.42, 6.98, 6.95, 8.73, 11.91, 7.9, 0.0, 0.0, 3.53, 4.8, 7.27, 9.33, 9.54, 8.8, 9.75, 12.04, 14.16, 11.5, 10.47, 4.1, 0.0, 3.32, 5.37, 6.64, 5.93, 5.95, 6.57, 8.48, 9.16, 8.0, 7.6, 13.15, 13.15, 13.15, 12.79, 13.15, 13.15, 13.15, 12.42, 12.42, 12.13, 12.13, 12.27, 12.09, 12.82, 14.17, 15.36, 15.87, 16.15, 15.9, 15.56, 15.18, 15.2, 15.65, 16.07, 16.02, 16.37, 15.81, 15.22, 14.93, 14.66, 13.86, 12.48, 11.18, 7.45, 6.4, 5.37, 6.44, 6.32, 7.89, 6.79, 6.52, 4.71, 3.39, -0.0, -0.0, -0.0, 2.17, 3.8, 4.96, 6.95, 8.23, 8.23, 4.4, -0.0, 1.73, 4.22, 6.8, 8.45, 8.06, 1.47, -0.89, -0.0, -0.0, 1.47, 1.54, 3.11, 4.4, 6.3, 6.95, 8.18, 8.34, 6.2, -11.4, -10.73, -10.28, -9.83, -10.28, -7.27, 10.28, 10.28, 6.95, 8.18, 8.05, 9.96, 9.75, 11.87, 8.05, 0.0, 0.0, 3.8, 5.9, 5.31, 5.06, 5.84, 7.2, 8.29, 8.0, 8.0, 13.15, 13.32, 13.32, 13.15, 13.15, 13.15, 13.15, 12.42, 12.79, 12.79, 12.51, 12.27, 12.65, 12.82, 13.78, 14.79, 15.49, 16.3, 16.58, 16.34, 16.01, 16.07, 16.09, 16.52, 16.37, 16.27, 16.3, 15.85, 15.51, 15.14, 15.2, 15.08, 13.7, 11.62, 7.15, 6.4, 6.32, 6.6, 7.47, 7.81, 5.72, 3.68, 1.95, -0.0, -0.0, -0.0, -0.0, 2.54, 2.54, 4.46, 4.71, 3.4, 1.95, 2.54, 2.4, 5.06, 6.8, 7.89, 6.32, 2.97, -0.0, -0.0, -0.0, -0.0, 1.84, 3.6, 4.22, 6.64, 7.68, 8.8, 8.06, -0.0, -12.39, -11.51, -10.38, -7.9, -3.82, -0.0, 5.2, 10.73, 7.27, 3.11, 4.96, 4.71, 6.7, 7.81, 10.08, 5.46, 0.0, 3.6, 5.63, 3.2, 4.87, 6.11, 7.82, 8.0, 7.89, 7.89, 13.32, 13.32, 13.75, 12.74, 12.74, 13.15, 13.15, 13.19, 12.79, 12.79, 12.9, 12.9, 13.03, 13.34, 13.99, 14.38, 14.53, 15.79, 16.58, 16.78, 16.46, 16.07, 16.09, 16.07, 15.93, 15.95, 15.96, 16.04, 16.08, 16.54, 16.99, 16.76, 15.47, 13.75, 7.15, 6.45, 5.95, 6.4, 6.4, 6.32, 3.2, 2.12, 2.06, 1.32, -0.0, -0.0, -0.0, -0.0, -0.0, 2.69, 2.83, 2.83, 2.83, 4.96, 6.32, 7.44, 7.44, 6.64, 4.2, 4.6, 2.49, -0.0, -0.0, 3.6, 2.54, 4.02, 5.37, 6.7, 8.3, 9.29, 9.83, -10.6, -12.96, -10.4, -0.0, 3.82, 8.01, 9.96, 10.41, 10.4, 10.73, 6.95, 0.0, 0.0, 0.0, 3.6, 8.49, 6.01, 6.01, 6.01, 1.84, 1.14, 2.99, 5.53, 7.81, 7.81, 7.81, 7.81, 13.32, 13.32, 13.75, 13.15, 12.74, 12.74, 13.15, 13.39, 13.19, 13.48, 13.48, 13.29, 13.59, 13.34, 13.59, 13.8, 14.38, 15.27, 16.05, 16.44, 16.07, 16.01, 15.62, 15.18, 15.47, 16.02, 16.54, 16.54, 16.52, 17.37, 17.27, 17.5, 16.6, 15.27, 12.45, 8.05, 6.36, 5.6, 5.58, 3.97, 1.84, 1.95, 1.95, 2.06, 2.17, 2.28, -0.0, -0.0, -0.0, -0.0, 4.2, 4.2, 6.64, 6.64, 6.32, 6.64, 6.64, 5.21, 5.46, 5.46, 5.46, 4.2, 4.0, 6.01, 6.01, 5.06, 5.94, 7.6, 9.7, 11.09, 11.95, 10.4, 6.21, 7.28, 8.24, 9.36, 10.12, 10.94, 11.12, 10.55, 10.0, 10.08, 0.0, -2.97, 0.0, 0.0, 4.96, 7.6, 7.6, 9.2, 4.4, 0.0, 1.84, 4.74, 7.27, 6.95, 7.06, 7.06, 13.32, 13.32, 13.32, 13.15, 12.74, 12.74, 13.39, 13.39, 13.19, 13.48, 13.48, 13.59, 13.99, 14.24, 13.34, 15.19, 13.39, 14.6, 15.04, 15.08, 15.56, 15.78, 15.27, 16.35, 15.15, 16.47, 13.62, 16.41, 16.91, 15.56, 17.06, 17.41, 16.51, 15.93, 14.84, 12.44, 9.83, 9.39, 9.13, 6.01, 3.2, 3.4, 2.54, 2.54, 4.71, 4.96, 2.83, -0.0, -0.0, -0.0, 4.2, 4.2, 4.2, 6.32, 6.32, 6.64, 8.4, 6.64, 6.95, 6.95, 6.95, 6.64, 6.32, 5.37, 3.6, 5.37, 6.79, 7.15, 8.77, 11.55, 12.71, 13.11, 14.79, 14.79, 13.19, 12.45, 12.04, 12.2, 11.87, 11.34, 8.8, -0.0, -9.83, -9.33, -4.4, -4.2, 0.0, 3.53, 9.6, 9.96, 8.8, 1.84, 1.26, 3.14, 6.3, 6.3, 5.98, 5.98, 13.32, 13.32, 13.32, 12.74, 12.98, 12.98, 13.39, 13.39, 13.19, 13.48, 13.48, 14.11, 13.99, 14.24, 13.74, 13.59, 13.19, 13.43, 14.3, 14.28, 16.0, 14.88, 14.2, 15.06, 14.56, 15.02, 15.44, 15.16, 16.0, 16.41, 17.1, 17.15, 16.54, 13.95, 14.57, 14.61, 12.86, 11.62, 10.28, 7.98, 7.37, 8.17, 7.63, 6.0, 4.46, 6.7, 6.01, -0.0, -0.0, -0.0, 2.97, 2.83, 2.83, 2.83, 5.69, 6.79, 6.95, 7.6, 8.48, 8.8, 8.4, 8.0, 7.6, 3.8, 2.4, 3.97, 5.95, 7.06, 8.05, 9.97, 12.3, 14.71, 17.13, 17.89, 16.69, 15.2, 13.39, 12.41, 12.07, 11.18, 10.18, -0.0, -8.77, -9.39, -8.94, -8.06, -3.8, 0.0, 7.9, 8.4, 9.64, 9.67, 2.28, 1.62, 3.7, 5.7, 5.7, 5.7, 13.32, 13.32, 13.44, 13.44, 12.98, 12.98, 12.98, 13.39, 13.99, 13.89, 13.48, 14.11, 13.99, 14.24, 14.24, 13.99, 13.19, 12.95, 10.94, 12.82, 14.96, 14.29, 13.38, 12.87, 14.13, 15.37, 15.44, 16.7, 17.4, 17.88, 17.88, 17.43, 17.43, 12.33, 12.01, 14.79, 13.99, 12.86, 11.55, 10.23, 8.49, 9.39, 9.83, 8.85, 6.4, 7.2, 6.01, 4.0, -0.0, -0.0, -0.0, -0.0, 2.54, 2.69, 4.71, 5.69, 6.79, 8.49, 9.83, 8.94, 8.94, 8.49, 8.49, 6.01, 3.4, 5.06, 5.95, 7.06, 7.4, 8.72, 10.4, 13.11, 15.77, 16.9, 16.07, 15.27, 12.79, 12.79, 11.55, 10.78, 10.28, 9.83, -9.39, -8.49, -8.67, -7.07, -6.32, 0.0, 0.0, 6.01, 8.0, 12.14, 8.85, 0.0, 2.97, 4.83, 5.86, 5.86, 13.32, 13.44, 13.44, 13.44, 12.98, 12.98, 12.98, 13.39, 13.99, 13.89, 14.11, 14.11, 13.84, 14.24, 14.24, 14.44, 13.59, 13.19, 12.56, 14.18, 15.56, 15.9, 15.12, 14.13, 14.96, 16.74, 17.02, 16.45, 16.54, 16.99, 17.41, 17.43, 17.43, 17.43, 16.99, 16.99, 15.34, 13.72, 12.14, 10.91, 10.23, 8.89, 8.94, 8.49, 6.88, 5.05, 7.07, 3.8, -0.0, -0.0, -0.0, -0.0, 2.54, 2.54, 4.46, 5.69, 6.28, 8.77, 8.91, 6.32, 6.7, 8.24, 8.49, 8.49, 5.69, 5.37, 5.37, 6.8, 6.52, 8.05, 7.9, 10.79, 14.53, 16.01, 6.98, 10.94, 12.24, 11.86, 11.33, 10.99, 10.91, 9.83, 9.39, -9.39, -9.39, -8.94, -8.94, -9.39, -8.94, 2.97, 7.9, 11.28, 11.03, 2.83, 1.67, 2.99, 4.0, 4.0, 13.44, 13.44, 13.44, 13.44, 13.44, 12.98, 13.39, 13.39, 13.99, 13.89, 14.11, 14.11, 14.7, 14.24, 14.44, 14.44, 13.59, 13.39, 13.59, 14.59, 16.02, 15.67, 14.94, 14.9, 15.9, 16.85, 17.41, 17.34, 16.97, 16.09, 16.54, 16.54, 16.51, 16.48, 16.44, 16.54, 16.09, 14.75, 12.86, 11.55, 10.68, 10.23, 9.77, 8.94, 7.98, 5.34, 6.7, -0.0, -0.0, -0.0, -0.0, -0.0, -0.0, 2.4, 2.4, 4.22, 5.59, 6.7, 8.94, 5.37, 4.83, 7.6, 8.06, 8.49, 3.6, 5.37, 4.74, 5.58, 6.44, 6.32, 6.95, 9.2, -0.0, -8.94, -5.51, 0.0, 5.63, 8.93, 9.77, 11.52, 11.2, 10.18, 8.77, 4.2, -0.0, -0.0, -2.28, -4.2, -7.27, -11.03, 0.0, 7.9, 9.75, 3.6, 2.06, 1.84, 3.6, 3.6, 13.44, 13.44, 13.44, 13.44, 13.44, 12.98, 12.98, 13.57, 13.99, 13.89, 14.11, 14.53, 14.7, 14.24, 14.44, 14.44, 14.6, 13.39, 14.38, 14.58, 15.49, 16.3, 15.71, 14.36, 14.97, 16.29, 17.17, 17.2, 17.34, 16.9, 16.07, 16.07, 16.07, 15.97, 15.91, 16.03, 16.09, 15.2, 13.41, 11.57, 10.23, 9.79, 10.23, 10.22, 8.94, 7.52, 8.06, 2.69, -0.0, -0.0, -0.0, -0.0, -0.0, -0.0, 2.26, 3.97, 3.45, 4.47, 7.6, 8.05, 3.0, 3.97, 5.06, -0.0, 2.12, 3.22, 5.69, 7.44, 8.0, 8.24, 8.05, 11.18, 14.3, -12.07, -11.62, -9.97, -6.32, 0.0, 5.31, 9.31, 10.99, 10.84, 9.29, 6.01, 4.44, 2.46, -0.0, -0.0, -1.84, -7.81, -8.4, 0.0, 3.8, 3.4, 2.4, 1.84, 1.95, 1.95, 13.44, 13.44, 13.44, 13.44, 13.44, 13.44, 13.15, 13.57, 13.99, 13.89, 14.11, 14.11, 14.7, 14.7, 14.44, 14.44, 14.6, 14.19, 13.97, 14.79, 14.94, 15.91, 16.02, 15.94, 15.27, 15.27, 16.76, 17.2, 17.2, 16.89, 16.9, 16.46, 15.57, 15.54, 15.74, 15.91, 16.04, 15.59, 14.25, 12.02, 9.79, 9.35, 9.79, 10.23, 9.79, 9.39, 8.05, 5.94, 4.43, 1.23, -0.0, -0.0, -0.0, -0.0, 1.84, 2.26, 2.26, 2.32, 5.37, 6.7, 8.05, 4.74, 6.71, -0.0, -0.0, 3.6, 6.32, 7.51, 8.3, 7.94, 8.29, 10.14, 13.41, 13.41, 13.86, 14.3, -13.01, -7.9, 0.0, 4.48, 9.48, 11.87, 11.02, 7.27, 4.71, 3.17, 2.69, 1.75, -0.0, -0.0, -8.0, -7.07, 0.0, 0.0, 2.26, 1.73, 1.73, 1.73, 13.44, 13.44, 13.44, 13.44, 13.44, 13.44, 13.53, 13.57, 13.99, 13.99, 14.11, 14.11, 14.7, 14.7, 14.44, 14.44, 14.6, 14.6, 14.73, 14.38, 14.38, 14.94, 15.91, 16.02, 15.87, 15.51, 15.71, 16.76, 17.22, 17.22, 16.89, 16.9, 16.46, 16.43, 15.74, 15.68, 15.91, 15.91, 15.46, 13.23, 11.14, 9.8, 9.8, 9.79, 10.24, 10.23, 9.77, 8.05, 6.71, 5.94, -0.0, -0.0, -0.0, -0.0, 1.25, 1.49, -0.0, -0.0, 3.2, 5.69, 7.6, 8.94, 7.6, -0.0, -0.0, 3.32, 5.63, 7.51, 8.49, 7.97, 7.53, 10.41, 11.59, 14.3, 14.72, 15.65, 14.53, -3.25, -4.46, 0.0, 5.8, 12.79, 13.01, 5.52, 2.99, 3.6, 3.8, 4.37, 5.36, 3.8, -0.0, -8.06, -4.71, 0.0, 2.26, 2.26, 1.73, 1.73, 13.44, 13.44, 13.44, 13.44, 13.44, 13.44, 13.53, 13.15, 13.57, 14.13, 14.11, 14.11, 14.7, 14.28, 14.84, 14.44, 14.6, 14.6, 14.73, 14.73, 14.73, 14.53, 14.94, 15.49, 15.49, 15.87, 15.51, 16.15, 16.62, 16.78, 16.78, 16.8, 16.9, 16.89, 16.29, 15.9, 15.81, 16.12, 16.17, 15.3, 13.55, 11.95, 10.62, 9.8, 10.25, 10.24, 10.24, 9.34, 8.0, 6.64, 5.51, -0.0, -0.0, -0.0, -0.0, -0.0, -0.0, -0.0, 2.12, 4.19, 7.89, 7.74, 7.81, -0.0, -0.0, 3.32, 5.63, 8.48, 8.49, 8.49, 8.29, 9.06, 10.6, 12.07, 12.94, 14.28, 16.31, 5.81, -4.96, -3.6, 0.0, 14.3, 3.47, 1.76, 1.14, 1.01, 3.6, 5.31, 5.1, 1.67, 1.2, -0.0, -7.63, -2.69, 0.0, 1.84, 1.73, 1.73, 13.44, 13.44, 13.44, 13.44, 13.44, 13.44, 13.53, 13.15, 13.57, 13.7, 13.7, 14.11, 14.28, 14.28, 14.42, 14.42, 14.6, 14.6, 14.73, 14.73, 14.73, 14.84, 14.84, 14.53, 15.07, 15.07, 15.44, 15.36, 15.87, 16.15, 16.19, 16.34, 16.8, 16.8, 16.76, 15.98, 15.81, 16.24, 16.33, 15.47, 14.18, 12.68, 11.06, 9.81, 10.26, 9.74, 10.05, 9.7, 8.8, 7.89, 6.2, 5.2, 2.98, -0.0, -0.0, -0.0, -0.0, -0.0, 2.64, 3.72, 5.95, 6.9, 4.14, 2.09, 2.83, 4.6, 8.0, 8.82, 8.94, 8.94, 8.9, 9.68, 9.97, 10.41, 11.05, 13.29, 14.31, 2.81, -7.15, -7.21, -8.49, -7.44, -0.0, -0.0, -0.0, -0.0, 2.4, 4.14, 3.15, -0.0, -0.0, -0.0, -5.69, -6.7, -1.95, 0.0, 1.84, 1.84, 13.44, 13.44, 13.44, 13.44, 13.44, 13.53, 13.53, 13.57, 13.57, 13.57, 14.13, 14.11, 14.7, 14.7, 14.7, 14.42, 14.19, 14.19, 14.19, 14.31, 14.73, 14.84, 14.84, 14.84, 14.84, 14.84, 14.84, 15.27, 15.79, 16.1, 16.15, 16.19, 16.36, 16.36, 16.34, 16.05, 15.9, 16.24, 16.33, 15.9, 15.04, 12.89, 11.33, 9.68, 8.77, 9.28, 10.25, 10.55, 10.55, 8.91, 8.14, 5.77, 4.92, 2.98, -0.0, -0.0, -0.0, -0.0, 1.73, 2.82, 3.2, 2.99, 1.25, 1.4, 2.58, 5.21, 7.81, 8.94, 8.17, 8.67, 8.77, 10.14, 10.45, 10.68, 11.5, 13.28, 13.15, 5.4, -7.51, -8.67, -6.71, -8.53, -2.89, -0.0, -0.0, -0.0, 1.23, 1.49, -0.0, -0.0, -0.0, 1.25, 1.07, -6.8, -2.4, 0.0, 1.58, 1.58, 13.44, 13.44, 13.44, 13.44, 13.44, 13.53, 13.53, 13.57, 13.57, 13.57, 13.7, 14.11, 14.28, 14.7, 15.12, 14.84, 14.42, 14.19, 14.19, 14.31, 14.73, 14.73, 14.84, 14.84, 14.84, 14.84, 14.42, 14.84, 15.27, 15.61, 15.67, 15.71, 15.75, 15.91, 16.34, 16.1, 15.9, 15.81, 16.24, 16.33, 15.47, 13.75, 12.04, 9.4, 7.81, 9.24, 11.34, 10.59, 9.48, 9.88, 9.58, 8.0, 4.77, 4.92, 2.98, -0.0, -0.0, 0.89, 0.94, 0.89, 0.95, 1.25, 1.25, 1.4, 3.8, 4.71, 6.01, 9.64, 7.31, 7.2, 8.4, 9.66, 11.51, 12.09, 12.45, 13.92, 14.11, 11.64, 9.3, -8.55, -9.83, -10.14, -9.17, -3.47, -0.0, -0.0, 1.67, 1.58, -0.0, -0.0, -0.0, 1.58, 2.69, -0.0, -8.49, 0.0, 1.67, 1.67, 13.01, 13.01, 13.44, 13.44, 13.44, 13.53, 13.53, 13.57, 13.57, 13.99, 14.13, 13.7, 14.28, 14.28, 14.7, 14.84, 14.84, 14.95, 14.6, 14.73, 14.73, 14.73, 14.84, 14.84, 14.84, 14.84, 14.31, 14.18, 14.61, 15.18, 15.44, 15.01, 15.08, 15.31, 15.75, 15.71, 15.98, 15.81, 15.81, 16.33, 15.9, 14.61, 12.21, 10.01, 8.34, 9.36, 12.18, 11.9, 8.58, 6.0, 8.22, 7.64, 6.0, 4.73, 4.92, 2.98, 1.4, 1.07, 0.94, 0.89, 0.95, 2.4, 2.69, 4.37, 5.1, 5.69, 5.37, 8.24, 8.05, 8.0, 7.2, 8.17, 10.58, 12.86, 14.36, 14.33, 13.77, 12.21, 10.89, 10.79, -10.0, -10.58, -11.18, -11.99, -7.44, -0.0, 4.48, 4.6, 6.01, -0.0, -0.0, 1.84, 3.91, 2.82, -0.0, 0.0, 2.17, 2.17, 13.01, 13.01, 13.01, 13.44, 13.44, 13.53, 13.53, 13.57, 13.57, 13.99, 14.13, 14.13, 14.13, 14.7, 14.7, 14.84, 14.84, 15.38, 15.38, 15.38, 15.16, 15.16, 14.73, 14.84, 14.84, 14.84, 14.31, 13.35, 15.12, 13.99, 14.65, 15.18, 15.44, 15.08, 15.31, 15.71, 15.61, 15.9, 15.81, 15.81, 15.9, 15.04, 13.32, 10.52, 9.45, 10.24, 12.37, 14.55, 13.72, 11.62, 8.23, 6.9, 5.6, 5.2, 4.66, 4.38, 3.79, 2.66, 2.4, 1.96, 2.8, 3.4, 5.1, 4.83, 6.01, 6.44, 6.08, 7.81, 8.05, 8.49, 7.54, 8.24, 10.18, 12.96, 16.51, 16.21, 12.36, 9.4, 11.09, 11.61, 9.97, -10.04, -11.91, -11.62, -12.3, -6.0, 4.38, 11.09, 10.84, 8.94, -0.0, 3.8, 3.4, 4.29, 2.06, 8.94, 2.69, 2.69, 13.01, 13.01, 13.01, 13.44, 13.44, 13.53, 13.53, 13.96, 13.57, 13.99, 14.13, 14.13, 14.13, 13.7, 14.7, 14.84, 14.84, 14.84, 14.95, 15.38, 15.47, 15.16, 15.16, 14.84, 14.42, 14.42, 14.31, 13.35, 12.74, 14.44, 13.7, 14.53, 14.94, 15.36, 15.67, 15.67, 15.61, 15.58, 15.81, 15.81, 15.9, 15.74, 13.75, 11.61, 10.18, 10.88, 12.44, 13.65, 13.83, 11.58, 8.9, 7.08, 5.94, 5.4, 5.26, 4.47, 4.47, 4.29, 3.22, 2.8, 2.88, 4.47, 6.01, 4.56, 4.83, 4.83, 5.37, 7.06, 8.33, 8.82, 8.67, 9.33, 8.94, 11.15, 15.62, 19.64, 12.51, 8.15, 8.12, 10.4, 11.45, 11.6, 0.0, -13.01, -13.41, -14.3, -0.0, 13.57, 12.07, 8.94, 8.49, 8.94, 3.8, 3.97, 4.02, 2.69, 5.69, 5.69, 13.01, 13.01, 13.01, 13.01, 13.44, 13.53, 13.53, 13.96, 13.57, 13.99, 14.13, 14.56, 14.13, 14.13, 14.28, 14.7, 14.84, 14.84, 14.95, 15.38, 15.38, 15.9, 15.16, 15.16, 14.42, 14.42, 14.31, 13.89, 13.56, 13.7, 13.7, 14.31, 14.73, 14.84, 15.61, 15.67, 15.61, 15.16, 15.69, 15.69, 15.81, 16.17, 14.86, 12.46, 11.23, 11.09, 11.95, 13.29, 13.44, 11.86, 9.74, 9.26, 8.45, 7.08, 6.17, 5.81, 5.81, 4.82, 3.58, 3.07, 4.29, 4.56, 5.37, 4.46, 3.2, 3.4, 4.56, 5.72, 7.6, 8.3, 7.81, 9.33, 9.83, 10.89, 14.53, 18.78, 14.75, 13.41, 11.5, 11.6, 12.87, 13.7, 13.75, 6.2, -13.15, -13.86, 14.3, 14.3, 12.07, 8.94, 7.15, 9.39, 8.94, 5.37, 5.95, 4.83, 7.2, 7.2, 13.01, 13.01, 13.01, 13.01, 13.44, 13.53, 13.53, 13.96, 13.99, 13.99, 14.56, 14.56, 14.56, 14.13, 14.23, 14.28, 14.42, 14.42, 14.42, 14.95, 15.38, 15.47, 15.16, 15.16, 14.73, 14.42, 14.31, 13.89, 13.56, 13.97, 14.42, 14.42, 14.42, 14.69, 15.12, 15.18, 15.55, 15.38, 15.69, 15.69, 15.69, 15.68, 14.81, 13.11, 11.84, 11.28, 12.14, 12.8, 12.8, 12.37, 10.37, 10.05, 9.11, 8.33, 7.98, 7.15, 6.26, 6.14, 4.98, 3.83, 2.79, 4.56, 5.37, 4.22, 2.54, 2.54, 4.29, 6.08, 6.44, 7.28, 7.4, 9.7, 10.28, 11.05, 13.75, 15.2, 15.62, 15.05, 15.2, 14.31, 13.39, 13.57, 12.72, 12.46, 5.8, -9.8, 0.0, 12.3, 10.52, 8.49, 7.6, 7.6, 9.39, 8.05, 6.4, 6.8, 7.6, 7.6, 13.01, 13.01, 13.01, 13.01, 13.44, 13.53, 13.96, 13.96, 13.99, 13.99, 14.56, 14.56, 14.56, 14.13, 14.23, 14.28, 14.42, 14.42, 14.42, 14.95, 14.95, 15.38, 15.47, 15.16, 14.73, 14.42, 14.42, 13.89, 13.89, 14.31, 14.31, 14.42, 13.99, 14.25, 14.25, 14.75, 15.12, 15.04, 15.27, 15.12, 15.12, 15.61, 15.46, 13.28, 11.84, 11.42, 11.75, 12.58, 12.72, 12.3, 11.03, 9.68, 9.4, 9.11, 8.36, 7.55, 7.15, 6.71, 5.73, 4.0, 3.84, 4.12, 6.44, 5.06, 3.4, 6.01, 5.37, 6.79, 7.6, 7.6, 8.67, 7.74, 10.65, 11.62, 12.49, 12.94, 13.86, 14.75, 16.54, 17.67, 15.69, 11.64, 10.4, 10.46, 10.0, 7.9, 9.3, 8.4, 7.01, 7.94, 7.6, 7.6, 8.49, 8.49, 7.6, 7.6, 7.89, 7.89, 12.58, 12.58, 13.01, 13.01, 13.44, 13.53, 13.96, 13.96, 14.4, 13.99, 14.56, 14.56, 14.56, 14.56, 14.23, 14.23, 14.28, 14.42, 14.42, 14.95, 14.95, 14.95, 15.47, 15.47, 14.73, 14.31, 14.42, 13.89, 13.89, 14.31, 14.31, 14.31, 13.99, 13.99, 14.25, 14.31, 14.31, 14.61, 14.84, 15.12, 15.12, 15.53, 14.95, 12.71, 10.05, 10.54, 11.31, 12.01, 12.14, 11.92, 11.09, 10.43, 9.6, 9.33, 8.67, 7.76, 7.45, 7.15, 5.81, 4.87, 4.4, 4.09, 6.08, 5.06, 4.56, 6.32, 5.37, 6.44, 7.6, 7.2, 7.47, 7.63, 10.18, 12.52, 13.83, 12.27, 12.27, 13.18, 15.82, 18.41, 16.7, 10.87, 8.73, 8.03, 8.8, 9.33, 9.13, 7.01, 7.94, 7.52, 7.52, 7.15, 7.15, 9.39, 8.94, 7.15, 7.15, 7.81, 12.58, 12.58, 13.01, 13.01, 13.44, 13.53, 13.96, 13.96, 14.4, 13.99, 14.56, 14.56, 14.56, 14.56, 14.66, 14.23, 13.86, 14.42, 14.42, 14.84, 14.95, 14.95, 14.95, 15.47, 15.04, 14.31, 13.89, 13.89, 13.89, 13.89, 14.31, 13.89, 13.89, 13.99, 13.99, 14.25, 13.88, 14.69, 14.53, 14.7, 14.53, 14.94, 14.13, 11.45, 9.62, 10.44, 11.03, 11.57, 12.29, 11.6, 11.36, 10.73, 9.9, 9.33, 8.4, 8.19, 7.45, 7.45, 6.26, 4.92, 4.73, 4.4, 6.8, 5.36, 5.72, 6.01, 6.01, 5.37, 5.69, 6.44, 6.8, 8.24, 9.39, 11.18, 15.65, 14.18, 11.61, 12.72, 15.01, 17.35, 15.68, 11.56, 9.3, 6.17, 6.64, 8.72, 8.91, 8.91, 10.32, 9.97, 8.43, 7.1, 6.71, 9.39, 9.39, 8.05, 6.71, 7.15, 12.58, 12.58, 12.58, 13.01, 13.44, 13.44, 13.96, 13.96, 14.4, 14.4, 14.84, 14.56, 14.56, 14.56, 14.56, 14.23, 14.23, 13.86, 14.42, 14.42, 14.95, 14.95, 14.95, 15.04, 15.04, 14.31, 13.89, 13.89, 13.47, 13.47, 13.89, 13.89, 13.89, 13.89, 13.57, 13.99, 13.82, 13.82, 14.61, 14.42, 14.53, 14.53, 13.48, 11.03, 9.96, 11.3, 12.66, 12.64, 12.27, 11.8, 11.6, 11.14, 9.9, 9.66, 8.4, 8.14, 7.28, 6.98, 6.22, 5.36, 4.87, 4.73, 4.93, 6.8, 6.32, 5.69, 4.22, 5.37, 5.69, 6.44, 7.47, 7.89, 9.39, 10.73, 13.41, 15.2, 13.28, 11.79, 12.33, 12.45, 12.3, 10.75, 9.85, 8.8, 6.95, 7.27, 9.2, 11.03, 11.18, 11.18, 9.97, 7.98, 7.54, 9.39, 8.94, 8.05, 5.6, 6.71, 12.58, 12.58, 12.58, 13.01, 13.01, 13.44, 13.53, 13.96, 13.96, 14.4, 14.4, 14.13, 14.56, 14.56, 14.13, 14.23, 14.23, 13.86, 13.99, 14.42, 14.42, 14.53, 14.53, 15.04, 15.04, 14.73, 13.89, 13.47, 13.47, 13.47, 13.47, 13.89, 13.89, 13.89, 13.47, 13.57, 13.82, 13.39, 13.75, 13.77, 13.43, 13.59, 12.5, 10.73, 9.67, 11.04, 13.43, 13.02, 11.8, 11.57, 11.69, 10.99, 9.9, 9.24, 8.3, 8.14, 7.28, 6.98, 6.66, 5.81, 4.92, 4.73, 6.4, 5.95, 5.37, 4.22, 4.22, 6.01, 5.37, 7.47, 7.47, 8.05, 8.94, 8.94, 10.73, 13.36, 16.09, 15.74, 10.2, 8.67, 8.93, 9.84, 9.2, 9.77, 9.67, 8.22, 8.22, 9.97, 10.4, 11.18, 10.32, 9.11, 8.24, 9.74, 9.21, 7.63, 6.36, 6.36, 12.14, 12.14, 12.58, 12.58, 13.01, 13.01, 13.53, 13.96, 13.96, 13.96, 14.4, 14.13, 14.13, 14.13, 14.13, 14.23, 14.23, 13.86, 13.86, 13.99, 14.42, 14.53, 14.53, 14.53, 14.61, 14.61, 13.89, 13.47, 13.47, 13.05, 13.05, 13.05, 13.47, 13.47, 13.47, 13.05, 13.05, 12.96, 13.32, 13.35, 13.02, 12.79, 11.88, 10.56, 9.92, 11.69, 13.35, 13.8, 11.9, 11.09, 11.16, 10.35, 8.95, 8.55, 8.4, 7.89, 7.63, 7.42, 7.11, 6.21, 5.36, 4.87, 4.52, 6.8, 5.37, 4.22, 5.69, 5.69, 6.4, 7.47, 8.38, 8.49, 9.21, 8.43, 10.2, 12.07, 13.86, 17.88, 15.58, 10.8, 8.41, 9.08, 9.89, 10.73, 10.61, 9.42, 9.58, 9.58, 10.38, 10.6, 10.27, 9.04, 9.54, 9.46, 7.89, 8.24, 8.24, 8.24, 12.14, 12.14, 12.58, 12.58, 13.01, 13.01, 13.44, 13.53, 13.53, 13.96, 13.96, 14.4, 14.13, 14.13, 14.13, 14.13, 14.23, 14.23, 13.86, 13.99, 14.42, 14.53, 14.53, 14.53, 14.53, 14.61, 13.89, 13.47, 13.05, 13.05, 12.63, 12.52, 12.52, 13.05, 13.47, 12.63, 12.63, 12.63, 12.89, 12.52, 12.79, 12.62, 11.77, 10.43, 10.09, 11.6, 13.49, 13.82, 12.94, 11.2, 10.8, 9.77, 8.4, 8.55, 8.14, 8.3, 7.63, 7.42, 7.42, 6.65, 5.81, 5.31, 4.52, 6.08, 5.37, 5.37, 5.69, 6.7, 6.4, 7.45, 8.05, 8.49, 8.85, 9.16, 9.21, 10.14, 12.07, 14.19, 15.95, 16.09, 15.55, 14.65, 13.59, 12.39, 11.6, 11.09, 10.6, 10.18, 10.18, 10.75, 10.75, 9.89, 9.89, 9.03, 8.48, 8.3, 8.3, 8.3, 12.14, 12.14, 12.58, 12.58, 13.01, 13.01, 13.44, 13.44, 13.96, 13.96, 13.96, 14.4, 14.13, 14.13, 14.13, 14.13, 14.23, 14.23, 13.86, 13.99, 14.42, 14.42, 14.53, 14.53, 14.53, 14.61, 13.89, 13.47, 13.05, 12.63, 12.63, 12.52, 12.52, 12.52, 12.63, 12.63, 12.21, 12.63, 12.63, 12.63, 12.38, 12.21, 11.38, 10.04, 9.52, 10.94, 12.65, 12.8, 12.89, 11.64, 10.6, 9.75, 8.3, 8.3, 7.73, 7.89, 7.63, 7.85, 7.55, 7.15, 6.71, 5.31, 4.93, 4.46, 6.44, 5.69, 7.2, 6.64, 7.06, 7.6, 8.94, 8.38, 8.85, 9.33, 9.79, 9.35, 10.73, 12.41, 13.62, 14.9, 17.67, 19.6, 20.56, 18.22, 13.44, 12.14, 11.18, 10.75, 10.41, 10.41, 11.4, 9.03, 9.46, 9.46, 8.91, 8.06, 8.06, 8.06, 12.14, 12.14, 12.58, 12.58, 12.58, 13.01, 13.01, 13.44, 13.96, 13.96, 13.96, 13.96, 14.13, 14.13, 14.13, 14.13, 14.23, 14.23, 13.86, 13.86, 13.99, 14.42, 14.53, 14.53, 14.53, 14.53, 13.89, 13.47, 13.05, 13.05, 12.63, 12.1, 12.1, 12.1, 12.1, 12.21, 12.21, 12.21, 12.63, 12.21, 12.1, 11.97, 11.38, 9.81, 9.52, 10.8, 11.88, 12.04, 12.21, 11.45, 10.78, 9.64, 8.77, 8.33, 7.71, 7.71, 7.85, 8.0, 7.6, 7.6, 7.1, 5.59, 4.93, 4.66, 4.46, 7.6, 7.81, 7.01, 7.45, 8.05, 8.05, 8.49, 8.94, 9.39, 9.39, 9.39, 10.28, 11.18, 12.49, 12.27, 14.25, 17.97, 20.5, 18.33, 16.01, 14.22, 12.14, 10.88, 10.27, 11.03, 9.55, 8.22, 8.63, 9.03, 9.03, 8.48, 8.48, 8.48, 12.14, 12.14, 12.58, 12.58, 13.01, 13.01, 13.01, 13.44, 13.53, 13.96, 13.96, 13.96, 13.99, 14.13, 14.13, 14.13, 14.13, 14.23, 13.86, 13.86, 13.99, 14.42, 14.42, 14.53, 14.53, 14.53, 13.77, 13.47, 13.05, 13.05, 12.63, 12.1, 12.1, 11.68, 11.68, 11.68, 11.68, 11.79, 12.21, 12.21, 12.1, 11.97, 11.38, 10.18, 9.65, 10.8, 11.34, 11.62, 11.36, 10.73, 10.08, 9.49, 8.8, 8.46, 7.89, 7.85, 8.0, 7.6, 8.05, 7.6, 7.1, 6.2, 5.16, 4.8, 4.46, 7.07, 7.21, 8.05, 8.49, 8.05, 8.49, 8.33, 8.49, 8.94, 9.39, 9.83, 10.28, 11.18, 11.59, 11.49, 12.27, 15.38, 20.07, 19.22, 17.37, 15.34, 12.72, 10.4, 9.7, 8.93, 7.76, 7.76, 8.15, 8.15, 9.04, 9.04, 9.04, 9.04, 12.14, 12.14, 12.58, 12.58, 12.58, 13.01, 13.44, 13.44, 13.53, 13.53, 13.96, 13.96, 13.57, 14.13, 14.13, 14.13, 14.13, 14.23, 13.86, 13.44, 13.44, 13.99, 14.42, 14.42, 14.53, 14.53, 14.1, 13.35, 12.93, 13.05, 12.63, 12.52, 12.1, 11.68, 11.68, 11.27, 11.27, 11.68, 11.79, 11.79, 11.79, 11.68, 11.2, 10.18, 9.65, 10.63, 11.2, 11.5, 10.96, 10.32, 10.08, 9.92, 9.24, 8.82, 8.01, 7.56, 7.55, 7.6, 7.6, 7.6, 7.6, 6.71, 5.29, 4.66, 4.22, 7.63, 7.21, 7.6, 8.05, 8.05, 8.94, 8.33, 8.94, 9.39, 9.39, 9.83, 9.83, 10.28, 10.69, 11.14, 11.59, 13.38, 17.4, 19.67, 19.61, 16.39, 12.45, 9.8, 9.1, 7.96, 8.0, 7.64, 7.64, 7.21, 7.81, 7.81, 7.81, 7.81, 12.14, 12.14, 12.58, 12.58, 12.58, 13.01, 13.44, 13.44, 13.44, 13.96, 13.96, 13.96, 13.99, 13.99, 14.13, 14.13, 14.13, 14.23, 13.86, 13.86, 13.86, 13.99, 14.42, 14.42, 14.53, 14.1, 14.1, 13.35, 12.93, 12.52, 12.52, 12.52, 12.1, 11.68, 11.68, 11.27, 11.27, 11.27, 11.27, 11.79, 11.79, 11.68, 11.2, 10.6, 10.04, 11.02, 11.6, 11.5, 10.55, 9.77, 9.36, 9.24, 9.49, 9.11, 8.46, 8.01, 7.56, 7.15, 7.15, 7.6, 7.6, 6.71, 5.36, 4.82, 4.57, 6.36, 6.0, 7.01, 7.6, 8.33, 8.82, 9.26, 9.39, 9.39, 9.39, 9.39, 9.39, 9.83, 10.28, 10.69, 11.18, 11.62, 12.94, 17.4, 19.17, 16.8, 8.0, 6.8, 7.12, 6.99, 6.91, 7.37, 7.07, 6.18, 6.18, 6.18, 6.18, 6.18, 12.14, 12.14, 12.58, 12.58, 12.58, 13.01, 13.44, 13.44, 13.44, 13.96, 13.96, 13.96, 13.99, 13.99, 14.13, 14.13, 14.13, 14.13, 13.86, 13.86, 13.86, 13.99, 14.42, 14.42, 13.99, 14.1, 14.1, 13.35, 12.93, 12.93, 12.52, 12.52, 12.1, 11.68, 11.68, 11.27, 11.27, 11.27, 11.27, 11.27, 11.37, 11.27, 11.14, 10.6, 10.18, 10.81, 11.41, 11.02, 10.4, 9.42, 9.03, 8.95, 8.95, 8.67, 8.38, 8.02, 8.01, 7.56, 7.15, 7.15, 7.15, 6.26, 5.36, 5.36, 4.92, 5.94, 6.07, 6.51, 7.15, 7.47, 7.89, 8.48, 8.91, 9.83, 9.39, 9.39, 9.39, 9.39, 9.39, 9.83, 10.73, 10.73, 11.18, 12.96, 17.88, 13.59, 9.33, 5.81, 4.47, 5.36, 5.94, 6.0, 5.6, 6.0, 5.24, 5.24, 5.24, 5.24, 12.14, 12.04, 12.14, 12.58, 12.58, 12.58, 13.01, 13.44, 13.44, 13.96, 13.96, 13.99, 13.99, 13.99, 13.99, 14.13, 14.13, 13.7, 13.86, 13.86, 13.86, 13.86, 13.99, 13.99, 13.99, 13.99, 13.77, 13.35, 12.93, 12.93, 12.52, 12.52, 12.1, 12.1, 11.68, 11.27, 11.27, 10.85, 10.85, 10.85, 11.37, 11.37, 11.27, 10.4, 10.6, 10.81, 11.2, 11.02, 10.43, 9.81, 8.82, 8.43, 8.8, 8.4, 8.24, 7.81, 7.94, 7.48, 7.57, 6.67, 6.66, 5.77, 5.31, 5.36, 5.36, 5.36, 6.71, 6.07, 6.71, 7.01, 7.06, 7.28, 7.33, 7.68, 9.83, 9.39, 9.39, 8.94, 9.39, 9.39, 10.28, 10.28, 10.28, 11.62, 17.62, 16.54, -8.93, -2.54, -0.0, 4.66, 5.81, 7.6, 6.07, 4.77, 5.64, 6.4, 6.4, 6.4, 12.04, 12.04, 12.04, 12.58, 12.58, 12.58, 13.01, 13.44, 13.44, 13.88, 13.96, 13.99, 13.99, 13.99, 13.99, 14.13, 14.13, 13.7, 13.7, 13.86, 13.86, 13.86, 13.86, 13.99, 13.99, 13.99, 13.35, 13.35, 12.93, 12.52, 12.52, 12.1, 12.1, 12.1, 11.68, 11.14, 11.27, 10.85, 10.85, 10.85, 10.95, 10.95, 10.85, 10.73, 10.2, 9.81, 10.43, 10.43, 10.43, 9.81, 9.2, 8.82, 8.8, 8.55, 8.4, 7.98, 7.76, 7.76, 7.48, 7.04, 6.23, 5.78, 5.77, 5.75, 5.73, 5.81, 6.71, 6.26, 6.58, 7.15, 7.5, 7.2, 6.63, 6.32, 9.13, 9.26, 9.39, 8.94, 9.33, 9.24, 9.68, 9.8, 10.25, 17.67, 18.48, -16.99, -10.35, -6.64, -0.0, 3.16, 4.4, 6.4, 4.74, 3.79, 6.8, 8.49, 8.49, 8.49, 12.04, 12.04, 12.04, 12.14, 12.58, 12.58, 13.01, 13.01, 13.44, 13.44, 13.96, 13.57, 13.99, 13.99, 13.99, 14.13, 14.13, 13.7, 13.7, 14.28, 13.86, 13.86, 13.86, 13.99, 13.99, 13.2, 13.2, 13.35, 12.93, 12.52, 12.52, 12.1, 12.1, 11.68, 11.55, 11.14, 11.14, 10.73, 10.85, 10.43, 10.85, 10.95, 10.85, 10.73, 9.81, 9.43, 9.81, 10.04, 9.81, 9.16, 9.2, 8.55, 8.6, 8.8, 8.4, 8.4, 7.98, 7.98, 7.76, 7.33, 6.6, 6.14, 6.11, 6.07, 6.02, 6.2, 5.81, 5.81, 7.06, 7.06, 7.6, 8.38, 8.38, 7.2, 6.08, 8.3, 8.48, 8.67, 8.91, 8.99, 8.99, 9.68, 11.51, 17.23, 17.67, -16.54, -9.58, -5.69, -3.48, -0.0, -0.0, 3.2, -0.0, -0.0, -0.0, 6.32, 6.32, 6.32, 12.04, 12.04, 12.04, 12.04, 12.14, 12.58, 13.01, 13.44, 13.44, 13.44, 13.44, 13.57, 13.99, 13.99, 13.99, 13.99, 14.13, 13.7, 13.7, 14.11, 14.28, 13.86, 13.86, 13.86, 13.2, 13.2, 13.2, 12.79, 12.93, 12.52, 12.52, 12.1, 12.1, 11.68, 11.55, 11.14, 11.14, 10.73, 10.73, 10.43, 10.43, 10.95, 10.85, 10.43, 9.81, 9.42, 9.05, 9.05, 9.05, 8.79, 9.2, 8.55, 8.6, 8.6, 8.8, 8.72, 8.3, 8.3, 7.89, 7.06, 6.64, 6.42, 5.99, 5.86, 6.45, 6.45, 6.64, 5.81, 7.15, 7.15, 8.05, 8.49, 8.94, 8.94, 8.67, 7.28, 7.2, 7.76, 8.58, 8.58, 8.3, 8.72, 11.05, 15.02, 14.88, -15.65, -7.28, -5.36, -4.11, -3.48, -0.0, -0.0, -0.0, -0.0, -0.0, 8.49, 8.49, 8.49, 12.04, 12.04, 12.04, 12.04, 12.14, 12.14, 12.58, 13.01, 13.01, 13.01, 13.44, 13.57, 13.57, 13.99, 13.99, 13.99, 14.13, 13.7, 13.7, 14.11, 14.11, 14.28, 14.28, 13.43, 13.2, 13.2, 13.2, 12.79, 12.93, 12.52, 12.1, 12.1, 11.68, 11.55, 11.55, 11.14, 11.14, 10.73, 10.32, 10.43, 10.43, 10.43, 10.43, 10.43, 9.9, 9.42, 9.05, 9.05, 8.67, 8.42, 8.55, 8.55, 8.99, 8.6, 8.6, 8.72, 8.72, 8.3, 7.89, 7.47, 7.47, 6.64, 6.23, 6.36, 6.28, 6.45, 6.45, 6.64, 6.26, 7.6, 7.6, 8.05, 8.49, 8.94, 8.82, 8.3, 7.44, 7.28, 7.58, 7.82, 7.82, 8.72, 9.97, 12.35, 12.22, -14.75, -6.8, -5.37, -5.37, -4.46, -6.4, -6.01, -0.0, 9.39, 9.39, 9.39, 9.39, 9.39, 12.04, 12.04, 12.04, 12.04, 12.46, 12.58, 12.58, 12.58, 13.01, 13.01, 12.98, 13.39, 13.57, 13.99, 13.99, 13.99, 13.48, 13.7, 13.7, 13.7, 14.11, 14.28, 14.28, 13.43, 13.02, 13.2, 13.2, 12.79, 12.38, 12.38, 11.97, 11.55, 11.55, 11.55, 11.14, 11.14, 11.14, 10.73, 10.73, 10.32, 10.43, 10.43, 10.43, 10.43, 9.9, 9.42, 8.79, 8.67, 8.67, 8.42, 8.12, 8.55, 8.72, 8.6, 8.99, 8.99, 8.72, 8.3, 8.3, 7.89, 7.35, 7.06, 6.64, 6.54, 6.54, 6.7, 6.57, 7.08, 6.64, 7.15, 7.6, 7.52, 7.94, 7.94, 8.06, 7.6, 6.52, 7.28, 7.58, 7.82, 7.82, 8.3, 9.24, 10.41, 11.17, -13.59, -9.74, -5.6, -5.37, -6.8, -7.44, -8.4, -9.39, -9.39, -9.39, -9.39, -9.39, -9.39, 12.04, 12.04, 12.04, 12.04, 12.46, 12.46, 12.58, 13.01, 13.01, 13.01, 12.98, 12.98, 13.39, 13.99, 13.99, 13.99, 13.48, 13.7, 13.7, 14.11, 14.11, 14.11, 13.84, 13.43, 13.02, 13.2, 12.79, 12.79, 12.38, 11.97, 11.97, 11.55, 11.55, 11.14, 11.14, 11.14, 10.73, 10.73, 10.73, 10.32, 10.43, 10.43, 10.43, 9.74, 9.6, 9.42, 9.2, 8.42, 8.42, 8.42, 8.12, 8.18, 8.72, 8.34, 8.99, 8.99, 8.72, 8.72, 8.3, 7.89, 7.35, 6.64, 6.25, 6.25, 6.25, 6.4, 6.7, 6.88, 7.08, 7.06, 7.15, 7.15, 7.15, 7.5, 7.2, 7.07, 6.52, 6.45, 7.2, 7.76, 8.17, 8.72, 9.24, 10.18, 12.03, -8.18, -12.52, -7.63, -5.94, -7.89, -8.4, -9.33, -8.4, -9.39, -9.39, -9.39, -9.39, -9.39, 11.87, 11.87, 12.04, 12.04, 12.46, 12.46, 12.58, 13.01, 13.01, 13.01, 12.98, 12.98, 13.39, 13.57, 13.99, 13.57, 13.07, 13.48, 13.7, 13.7, 14.11, 13.59, 13.84, 13.84, 13.02, 12.62, 12.39, 12.39, 11.99, 11.6, 11.6, 11.2, 11.2, 10.8, 10.8, 10.8, 10.8, 10.4, 10.4, 10.0, 10.0, 10.15, 9.74, 9.74, 9.6, 9.77, 8.82, 8.42, 8.42, 8.42, 8.12, 8.18, 8.34, 8.34, 8.8, 8.58, 8.58, 8.72, 8.72, 8.3, 7.42, 7.03, 6.64, 6.25, 6.25, 6.07, 6.4, 6.99, 7.37, 6.94, 6.22, 7.6, 7.15, 7.15, 7.52, 7.4, 7.37, 6.91, 7.58, 8.17, 8.17, 8.72, 9.66, 10.18, 12.66, 0.0, -13.67, -10.73, -8.38, -8.38, -9.26, -9.64, -9.33, -9.83, -9.39, -8.91, -8.91, -8.91, 11.87, 11.87, 11.87, 12.04, 12.04, 12.46, 12.46, 12.58, 13.01, 12.56, 12.98, 12.98, 13.39, 13.39, 13.57, 13.07, 13.07, 13.07, 13.7, 13.7, 13.19, 13.59, 13.59, 13.43, 13.02, 12.17, 12.17, 11.99, 11.99, 11.6, 11.6, 11.2, 10.8, 10.8, 10.8, 10.8, 10.8, 10.4, 10.4, 10.4, 10.0, 10.0, 10.15, 9.74, 9.6, 9.77, 8.82, 8.82, 8.42, 8.42, 7.76, 8.18, 8.34, 8.34, 8.8, 8.58, 8.58, 8.3, 8.72, 8.0, 8.0, 7.42, 7.03, 6.64, 6.64, 6.44, 6.44, 6.8, 7.53, 7.12, 6.55, 7.6, 6.71, 7.6, 7.15, 7.52, 7.53, 6.91, 6.45, 7.15, 7.82, 8.8, 9.36, 9.9, 11.6, 7.82, -11.44, -11.03, -10.28, -9.83, -9.39, -9.39, -9.83, -9.39, -9.39, -8.48, -8.48, -8.48, 11.87, 11.87, 12.3, 12.3, 12.46, 12.46, 12.46, 12.46, 12.58, 12.56, 12.56, 12.98, 13.39, 13.39, 13.07, 13.07, 13.07, 13.07, 13.07, 13.19, 13.19, 13.19, 13.19, 13.43, 12.56, 12.17, 12.17, 11.77, 11.77, 11.6, 11.6, 11.2, 10.8, 10.8, 10.8, 10.2, 10.2, 10.2, 10.4, 10.0, 10.0, 10.0, 10.0, 10.01, 9.9, 9.77, 9.6, 8.82, 8.42, 8.42, 8.18, 8.18, 8.34, 8.34, 7.96, 8.4, 8.58, 8.17, 8.3, 8.0, 8.0, 7.42, 7.42, 7.03, 6.08, 6.08, 6.08, 6.82, 7.2, 6.8, 6.28, 5.67, 5.36, 7.6, 6.71, 7.52, 7.53, 6.91, 6.45, 7.15, 7.76, 8.82, 9.03, 9.42, 10.8, 10.99, -2.72, -9.42, -10.38, -9.64, -9.26, -9.83, -9.26, -8.77, -8.67, -8.48, -8.48, -8.48, 11.87, 11.87, 12.3, 12.3, 12.46, 12.46, 12.46, 12.46, 12.58, 12.56, 12.56, 12.98, 13.39, 13.39, 13.07, 13.07, 13.07, 13.07, 13.07, 13.19, 13.19, 13.19, 13.19, 13.43, 12.56, 12.17, 12.17, 11.77, 11.77, 11.6, 11.6, 11.2, 10.8, 10.8, 10.8, 10.2, 10.2, 10.2, 10.4, 10.0, 10.0, 10.0, 10.0, 10.01, 9.9, 9.77, 9.6, 8.82, 8.42, 8.42, 8.18, 8.18, 8.34, 8.34, 7.96, 8.4, 8.58, 8.17, 8.3, 8.0, 8.0, 7.42, 7.42, 7.03, 6.08, 6.08, 6.08, 6.82, 7.2, 6.8, 6.28, 5.67, 5.36, 7.6, 6.71, 7.52, 7.37, 6.91, 6.45, 7.15, 7.76, 8.42, 9.05, 9.42, 10.0, 10.99, 6.9, -4.65, -9.08, -10.38, -9.55, -9.26, -9.26, -9.21, -8.4, -7.81, -7.81, -7.81]}, {"header": {"dx": 0.06612293990616946, "dy": 0.0552356325346848, "nx": 98, "ny": 59, "la1": 35.046912555036876, "la2": 31.78801023549047, "lo1": -121.43107172385933, "lo2": -114.95102361305473, "refTime": "2026040918", "parameterCategory": 1, "parameterNumber": 3}, "data": [-5.48, -5.48, -5.48, -5.48, -5.48, -5.48, -5.48, -5.48, -5.48, -5.48, -2.72, -2.28, -2.06, -1.84, 0.0, 0.0, 0.0, 0.0, 0.0, 0.0, 0.0, 0.0, -2.17, -4.96, -5.69, 0.0, -0.0, -4.43, -4.43, -4.43, -4.74, -5.01, -5.01, -6.23, -6.58, -6.26, -7.15, -6.94, -6.32, -5.69, -3.8, -5.06, -5.98, -7.19, -7.58, -7.76, -8.55, -9.66, -7.68, -5.5, -2.54, -1.16, 0.0, 0.0, 0.89, 1.76, 2.71, 3.68, 3.68, 3.42, 3.42, 3.42, 2.71, 2.71, 2.82, 2.82, 2.61, 2.71, 2.61, 2.62, 2.81, 2.93, 3.06, 2.94, 2.95, 1.93, 1.18, 1.28, 0.0, 0.0, -2.49, -5.06, -5.2, -4.11, -4.43, 0.0, 0.0, 0.0, 0.0, -1.11, -1.28, 0.0, 1.58, 4.75, 6.94, 8.01, 8.24, 7.9, -5.31, -5.48, -5.48, -5.48, -6.6, -6.6, -6.8, -5.64, -6.6, -6.6, -6.0, -3.14, -2.28, -3.39, -2.82, 0.0, 0.0, 0.0, 0.0, 0.0, 0.0, 0.0, 0.0, -4.0, -6.0, -6.71, -6.71, -4.74, -6.0, -5.58, -6.0, -5.6, -5.4, -5.7, -6.26, -7.15, -8.05, -8.05, -8.33, -8.0, -5.9, -6.97, -7.19, -8.94, -8.67, -8.87, -8.8, -7.22, -3.33, -1.33, -1.16, 0.0, 0.0, 0.0, 1.63, 2.71, 3.53, 3.42, 3.42, 3.42, 3.42, 3.42, 2.51, 2.61, 2.82, 1.77, 1.77, 2.71, 2.53, 2.62, 2.72, 2.81, 2.82, 1.84, 1.92, 1.76, 1.01, 1.28, 0.0, 0.0, -2.49, -5.06, -5.2, -4.11, -4.43, 0.0, 0.0, 0.0, 0.0, -1.11, -1.28, 0.0, 1.58, 4.75, 6.94, 8.01, 8.24, 7.9, -5.31, -5.48, -5.48, -5.48, -6.6, -6.6, -6.8, -6.8, -9.12, -8.58, -5.6, -3.82, -4.32, -3.68, -4.8, -3.39, -3.53, -1.58, -1.84, 0.0, 0.0, 0.0, 0.0, 0.0, -6.32, -7.15, -6.71, -6.71, -6.71, -7.15, -7.6, -7.15, -7.15, -7.6, -6.61, -8.49, -8.05, -8.94, -9.29, -9.75, -9.46, -9.13, -10.05, -9.92, -10.31, -8.43, -4.52, -1.66, 0.0, 0.0, 0.0, 0.93, 0.97, 1.92, 2.6, 3.53, 3.29, 3.42, 3.42, 3.19, 3.19, 3.19, 3.29, 2.61, 2.61, 2.61, 2.53, 2.53, 2.53, 2.45, 2.54, 2.72, 1.9, 0.86, 0.89, 0.85, 0.85, 0.0, 0.0, 0.0, -1.69, -3.6, -5.37, -6.0, -5.81, -5.06, -2.54, -1.67, -2.46, -2.39, -3.04, 0.0, 1.77, 3.82, 5.4, 5.95, 6.01, 6.64, -5.31, -5.31, -5.48, -5.48, -6.6, -6.6, -6.8, -9.12, -8.85, -8.31, -7.24, -5.52, -4.48, -5.0, -5.0, -6.2, -5.2, -4.75, -3.32, -1.58, 0.0, 0.0, 0.0, 0.0, -2.1, -4.4, -7.15, -7.15, -7.15, -7.21, -8.06, -7.44, -6.32, -4.96, -6.32, -8.4, -9.64, -10.96, -11.28, -12.25, -13.39, -13.96, -12.86, -9.84, -7.21, -4.01, -1.26, 0.0, 0.85, 0.85, 1.5, 1.76, 2.49, 2.6, 3.39, 3.29, 3.42, 3.19, 3.19, 2.44, 3.19, 3.19, 3.42, 3.19, 3.19, 3.32, 3.32, 2.93, 3.53, 2.97, 2.55, 1.95, 1.05, 0.0, 0.0, 0.0, 0.0, 0.0, 0.0, -1.66, -1.05, -1.98, -3.2, -4.43, -7.2, -6.32, -4.0, -4.37, -4.0, -4.93, -3.93, 0.0, 1.98, 4.15, 5.21, 5.46, 5.21, 5.59, -5.31, -5.31, -5.48, -5.48, -5.48, -6.6, -6.8, -9.12, -8.85, -8.31, -7.24, -5.52, -4.32, -3.53, -4.8, -6.45, -6.76, -5.99, -4.75, -4.75, -2.45, -2.6, -2.6, -2.82, -2.1, -3.53, -6.95, -8.91, -9.39, -8.49, -8.48, -5.46, -2.28, -1.91, -2.19, -5.0, -7.9, -11.6, -14.65, -16.39, -16.48, -12.33, -9.33, -6.51, -4.81, -2.16, -0.97, 0.0, 0.0, 0.82, 0.86, 1.7, 1.7, 2.51, 2.44, 2.44, 2.44, 2.44, 2.53, 2.44, 2.44, 3.19, 3.19, 3.32, 4.06, 3.44, 3.44, 3.96, 4.24, 4.13, 3.38, 2.88, 2.0, 0.0, 0.0, -0.78, -0.89, 0.0, -1.42, -3.01, -1.63, -1.96, -3.0, -5.06, -6.32, -5.1, -3.32, -4.0, -5.2, -5.31, -2.63, 0.0, 4.8, 6.32, 5.86, 4.2, 4.0, 4.6, -5.31, -5.31, -5.31, -5.48, -5.48, -6.6, -6.8, -8.85, -8.85, -9.8, -7.24, -6.17, -4.15, -3.98, -5.0, -5.54, -7.44, -7.73, -7.02, -7.28, -6.21, -5.4, -3.25, -4.1, -3.82, -2.93, -3.68, -5.0, -7.59, -10.73, -8.91, -6.64, -3.65, -1.71, -1.48, 0.0, 0.0, 0.0, -16.91, -18.59, -14.39, -10.12, -6.21, -5.6, -3.96, -3.6, -2.16, -1.91, -0.97, 0.0, 0.0, 0.0, 0.82, 0.82, 0.8, 0.83, 1.64, 1.64, 1.71, 1.71, 2.44, 2.51, 3.42, 3.32, 3.44, 3.23, 3.44, 3.32, 4.1, 4.13, 3.28, 3.28, 3.07, 2.34, 0.0, 0.0, -0.89, 0.0, 0.0, -2.93, -2.82, -3.55, -3.97, -5.37, -6.28, -5.31, -4.2, -3.44, -2.35, 0.0, 3.96, 10.41, 8.72, 7.28, 5.86, 4.2, 2.83, 3.82, -5.31, -5.31, -5.31, -5.48, -5.48, -5.48, -8.85, -8.85, -10.12, -9.8, -8.53, -6.95, -6.44, -4.8, -4.48, -4.4, -5.99, -7.28, -8.15, -7.51, -6.3, -5.02, -1.83, 0.0, 0.0, 0.0, 0.0, 4.52, 4.1, 0.0, -7.59, -7.81, -5.9, -3.87, -2.52, -1.53, 0.0, 0.0, 0.0, -0.0, 0.0, 0.0, 0.0, 0.0, 0.0, 0.0, -1.38, -1.16, -2.08, -1.5, 0.0, 0.0, 0.0, 0.0, 0.0, 0.0, 0.89, 0.83, 1.64, 1.71, 2.61, 2.51, 2.61, 2.53, 2.53, 3.23, 2.45, 2.53, 2.45, 2.47, 2.41, 3.36, 3.17, 2.01, 1.27, 1.42, 0.0, 0.0, 0.0, -0.98, -2.99, -4.71, -5.21, -6.14, -7.59, -8.22, -6.21, -3.81, 0.0, 2.54, 7.51, 11.45, 7.63, 6.63, 4.6, 2.83, 3.11, 3.98, -5.15, -5.31, -5.31, -5.31, -5.48, -7.59, -7.59, -8.85, -8.94, -10.47, -9.58, -8.43, -8.23, -6.98, -6.44, -6.5, -6.4, -6.87, -7.78, -7.11, -5.45, -3.85, -1.33, 0.0, 0.0, 0.0, 3.79, 7.2, 8.85, 3.25, 0.0, -3.82, -3.96, 0.0, 0.0, 0.0, 0.0, 0.0, 11.03, 11.28, 12.96, 13.86, 14.39, 12.01, 9.66, 7.36, 4.08, 1.23, 0.0, 0.0, 0.0, 0.0, 0.0, 0.0, 0.0, 0.0, 0.0, 0.89, 0.89, 0.89, 1.77, 1.63, 1.7, 1.58, 1.64, 1.6, 1.65, 0.83, 0.83, 1.65, 1.61, 1.66, 1.72, 1.89, 2.15, 1.17, 1.08, 0.0, 0.0, -1.19, -2.8, -4.75, -4.4, -5.95, -7.73, -7.54, -6.21, -3.68, 0.0, 3.32, 6.2, 4.89, 6.52, 4.37, 2.69, 1.4, 1.62, 1.93, -4.38, -4.52, -4.52, -5.31, -7.59, -7.59, -7.59, -9.22, -8.94, -9.17, -9.67, -10.09, -11.12, -10.79, -9.62, -9.62, -9.17, -8.05, -8.05, -8.73, -8.38, -6.0, -3.01, -3.1, -1.43, 0.0, 0.0, 5.15, 5.81, 2.81, 3.36, 10.75, 12.65, 9.8, 5.6, 1.64, 0.0, 7.9, 10.28, 10.28, 12.96, 14.47, 13.7, 10.73, 9.08, 7.9, 7.54, 5.0, 4.18, 3.39, 1.64, 2.1, 1.05, 1.05, 0.0, 0.0, 0.0, 0.0, 0.0, 0.0, 0.0, 0.0, 0.0, 0.0, 0.82, 0.86, 0.86, 0.83, 0.82, 0.8, 0.83, 0.79, 0.0, 0.0, 0.0, 0.0, 0.0, 0.0, -1.06, -1.15, -2.72, -5.02, -5.46, -5.59, -6.42, -6.45, -4.75, -3.19, 0.0, 2.13, 2.51, 3.11, 3.0, 2.54, 1.4, 1.4, 1.62, 2.28, -4.38, -4.38, -4.52, -4.52, -6.6, -7.59, -7.59, -9.22, -10.12, -9.96, -10.19, -10.37, -8.53, -9.48, -10.52, -11.37, -12.13, -11.8, -10.43, -10.47, -10.12, -10.12, -8.66, -7.36, -7.36, -2.28, 0.0, 2.6, 5.48, 5.31, 10.43, 16.22, 15.65, 12.87, 9.66, 4.15, 5.21, 9.29, 10.28, 8.77, 10.32, 11.6, 10.0, 7.33, 6.01, 5.44, 4.94, 4.6, 4.54, 3.65, 2.83, 1.84, 0.97, 0.0, 0.0, 0.0, -0.89, -1.77, -1.77, -0.97, -0.93, 0.0, 0.0, 1.84, 1.84, 1.76, 1.77, 0.8, 0.0, -0.89, -0.89, -1.57, -1.58, -1.72, -2.64, -2.54, -2.61, -2.82, -2.53, -1.95, -2.47, -4.01, -7.79, -5.37, -5.69, -5.86, -4.6, -2.82, 0.0, 0.0, 1.63, 1.63, 0.95, 0.0, 0.0, 0.0, 1.69, 4.0, -4.38, -4.38, -4.52, -4.66, -6.6, -6.6, -6.6, -8.18, -9.16, -9.48, -9.84, -10.43, -8.66, -6.98, -6.95, -9.31, -11.06, -11.06, -9.09, -8.43, -10.46, -11.35, -10.87, -8.18, -6.6, 0.0, 0.0, 4.6, 7.78, 8.31, 9.17, 12.79, 11.91, 10.38, 8.73, 7.24, 9.3, 9.13, 6.57, 5.95, 5.95, 8.18, 8.03, 8.18, 6.64, 5.31, 4.71, 2.98, 1.84, 1.94, 1.84, 1.68, 0.89, 0.0, 0.0, -0.86, -1.77, -2.93, -3.82, -3.06, 0.0, 3.87, 5.15, 5.46, 4.78, 3.67, 1.84, 1.0, -1.0, -3.82, -4.21, -4.55, -4.76, -5.02, -5.15, -4.66, -4.65, -4.12, -4.28, -3.25, -2.31, -2.65, -4.81, -8.3, -7.44, -5.59, -5.31, -3.8, -1.39, 0.0, 0.0, 0.0, 0.0, 0.0, 0.0, 0.0, 0.0, 3.15, -4.38, -4.38, -4.52, -6.6, -6.6, -6.6, -6.6, -8.18, -9.16, -8.73, -9.48, -9.8, -9.22, -6.78, -4.98, -3.23, -1.9, -1.23, -1.34, 0.0, 0.0, 0.0, 0.0, 0.0, 0.0, 1.83, 3.44, 2.51, 3.4, 3.0, 3.8, 4.74, 5.75, 5.81, 9.2, 8.82, 8.55, 6.32, 6.32, 6.18, 5.37, 5.84, 7.81, 8.4, 8.0, 6.28, 5.1, 3.8, 3.15, 1.47, 1.84, 1.75, 1.75, 1.68, 0.85, 0.0, 0.0, -2.62, -4.93, 0.0, 8.85, 8.29, 8.58, 7.87, 6.77, 5.52, 5.2, 2.93, 0.0, -2.94, -5.51, -6.21, -7.01, -6.79, -6.96, -6.42, -5.8, -6.08, -5.6, -4.58, -2.72, -1.48, -1.55, -8.18, -8.93, -8.4, -7.44, -5.86, -4.6, -2.83, -1.07, -1.07, 0.0, -0.95, -1.05, -1.28, 0.0, 1.25, -4.38, -4.38, -4.52, -6.6, -6.6, -6.6, -6.6, -7.93, -7.1, -8.05, -8.31, -9.42, -9.22, -8.43, -5.81, -3.48, -1.58, 0.0, 0.0, 0.74, 0.7, 1.33, 1.9, 1.27, 1.71, 1.71, 2.28, 2.33, 1.87, 0.71, 0.0, 1.84, 3.91, 4.65, 5.81, 5.81, 5.75, 5.93, 5.37, 4.87, 4.87, 5.49, 8.4, 8.48, 8.24, 7.2, 7.2, 6.01, 5.1, 3.15, 2.67, 1.75, 2.69, 4.03, 4.6, 6.64, 4.83, 2.02, -10.4, 5.93, 9.35, 9.68, 8.72, 8.58, 8.18, 8.02, 7.82, 7.64, 5.43, 2.82, 0.0, -4.36, -6.31, -7.42, -7.95, -8.15, -7.54, -5.99, -5.6, -5.4, -2.6, -1.44, -1.55, -1.9, -8.85, -10.87, -9.6, -8.43, -6.95, -4.37, -4.37, -2.26, -2.09, -1.73, -1.84, -2.13, -1.0, 0.0, -4.38, -4.38, -4.38, -6.4, -6.6, -5.63, -5.63, -7.1, -7.1, -8.31, -8.58, -8.78, -8.46, -8.43, -7.2, -5.65, -3.49, -2.5, -0.82, 0.0, 0.0, 0.0, 0.7, 1.42, 1.42, 2.11, 2.56, 2.68, 2.76, 0.89, 0.0, 0.0, 1.67, 3.22, 4.43, 5.01, 4.89, 4.47, 3.97, 4.22, 4.22, 5.59, 9.2, 10.84, 9.83, 9.54, 6.9, 7.87, 6.44, 6.44, 3.65, 3.98, 8.05, 12.39, 11.2, 10.4, 5.63, 1.54, 0.0, 6.99, 9.7, 10.28, 10.18, 9.74, 8.99, 8.8, 8.06, 8.03, 8.15, 6.95, 6.24, 1.98, -7.9, -9.83, -9.83, -10.6, -9.6, -7.27, -3.11, -2.39, -4.4, -3.25, -3.44, -2.02, -4.93, -8.38, -12.3, -10.73, -8.3, -5.37, -6.64, -4.75, -3.97, -2.82, -2.83, -2.04, -0.89, 0.0, -4.38, -4.38, -4.38, -6.4, -5.63, -5.63, -5.63, -7.1, -7.1, -7.58, -7.58, -8.18, -8.46, -8.16, -7.63, -6.14, -4.67, -3.59, -2.51, -1.64, -0.8, 0.0, 0.0, 0.8, 1.53, 2.34, 3.01, 3.62, 2.84, 1.63, 0.0, -0.96, 0.0, 1.49, 3.2, 5.37, 4.83, 4.22, 3.15, 2.26, 3.91, 7.07, 10.18, 10.73, 8.94, 8.94, 8.67, 7.6, 7.44, 6.95, 6.17, 6.17, 8.8, 8.49, 6.94, 6.32, 3.4, 0.85, 2.69, 8.82, 8.9, 9.39, 8.94, 8.82, 9.26, 9.33, 8.8, 7.56, 6.95, 5.46, 5.21, 9.3, 2.28, -0.0, -0.0, -0.0, -0.0, 7.27, 0.0, 0.0, -6.95, -5.46, -4.83, -3.98, -3.25, -3.96, -10.73, -11.18, -9.39, -7.6, -7.87, -6.63, -5.06, -4.87, -3.6, -1.84, -0.89, -0.89, -4.38, -3.81, -3.81, -5.63, -5.63, -5.63, -5.63, -7.1, -6.4, -6.4, -7.82, -8.18, -7.59, -8.16, -7.42, -6.34, -5.81, -4.79, -3.69, -2.58, -1.6, -0.8, 0.0, 0.79, 2.34, 2.96, 2.83, 2.76, 2.02, 1.38, 0.0, -1.89, -2.11, 0.0, 0.0, 3.2, 4.22, 3.77, 2.99, 1.95, 4.29, 6.13, 7.81, 8.05, 8.05, 8.05, 8.49, 7.63, 7.63, 6.7, 7.07, 6.8, 7.81, 7.63, 7.21, 5.06, 3.4, 3.15, 6.32, 8.91, 8.94, 9.39, 8.49, 8.05, 7.37, 7.2, 6.32, 6.64, 6.14, 4.4, 2.69, 9.83, 1.77, 1.64, 4.15, 7.9, 11.45, 12.07, 10.4, 0.0, -7.27, -9.33, -7.44, -7.07, -4.46, -1.95, -2.02, -8.18, -8.49, -7.2, -7.51, -6.4, -5.84, -5.24, -4.34, -4.0, -3.15, -3.15, -3.81, -3.81, -3.93, -5.46, -5.46, -5.63, -5.63, -6.6, -6.4, -6.4, -7.16, -7.16, -7.82, -7.28, -7.0, -6.16, -5.81, -4.93, -3.69, -2.65, -1.65, -0.8, 0.0, 0.8, 2.28, 2.17, 2.08, 1.34, 0.67, 0.0, 0.0, -2.79, -4.42, -3.93, 0.0, 1.84, 3.97, 3.2, 3.2, 4.22, 6.4, 6.36, 8.24, 7.94, 9.39, 8.94, 8.94, 8.49, 8.49, 8.06, 8.48, 8.48, 8.48, 7.44, 6.32, 4.96, 4.96, 6.64, 8.4, 9.2, 9.97, 9.39, 8.49, 7.2, 7.63, 5.36, 5.37, 4.46, 3.32, 1.33, 0.0, -3.53, -0.0, 5.2, 11.62, 11.45, 9.62, 8.3, 6.94, 5.2, 0.0, -6.95, -8.94, -8.05, -8.49, -7.2, 0.0, -6.01, -6.01, -6.01, -9.21, -7.97, -6.99, -6.45, -6.69, -5.21, -5.21, -5.21, -3.81, -3.81, -3.93, -5.63, -5.46, -5.46, -5.63, -5.02, -6.6, -5.99, -5.99, -7.38, -6.8, -7.28, -6.8, -6.37, -6.16, -5.09, -4.01, -1.83, -0.85, -1.6, -0.82, 0.8, 2.32, 1.53, 0.0, 0.0, -0.72, -1.51, -2.36, -3.68, -6.64, -5.09, -1.25, 0.0, 2.12, 2.8, 3.72, 5.95, 7.37, 7.81, 7.81, 8.24, 8.67, 9.11, 8.94, 8.94, 8.94, 9.39, 8.4, 8.4, 6.64, 6.64, 6.32, 6.64, 6.64, 7.81, 8.18, 8.18, 8.18, 8.4, 8.0, 6.01, 6.01, 5.06, 1.98, 0.0, -1.62, -1.39, -1.71, 5.2, 10.35, 10.19, 9.42, 8.32, 8.1, 6.96, 6.67, 5.86, 5.0, 2.02, -8.94, -8.91, -9.39, -8.49, -7.44, -3.8, -3.8, -4.6, -8.8, -8.49, -7.37, -7.58, -7.27, -6.95, -6.18, -6.18, -3.81, -3.81, -3.81, -5.63, -5.46, -5.46, -5.02, -5.02, -6.6, -5.99, -5.99, -6.8, -7.0, -6.47, -7.28, -7.6, -6.18, -5.62, -4.3, -1.89, -1.64, -3.16, -3.39, -2.52, -1.17, -1.5, -2.55, -4.38, -4.23, -4.1, -3.59, -4.1, -6.88, -7.08, -4.95, -1.38, 0.0, 0.0, 3.65, 6.01, 6.4, 6.8, 7.63, 7.63, 7.07, 7.44, 8.48, 9.39, 9.39, 9.39, 8.4, 8.4, 8.4, 6.32, 6.32, 6.64, 4.2, 6.64, 6.95, 6.95, 6.95, 6.64, 6.32, 5.37, 7.2, 5.37, 2.26, 0.0, -1.75, -1.28, 2.54, 5.73, 7.4, 7.4, 6.6, 4.98, 3.44, 2.81, 3.96, 4.12, 4.4, 9.83, -0.0, -3.11, -8.8, -8.4, -10.28, -10.6, -4.8, -3.98, -4.4, -9.21, -8.85, -8.37, -7.56, -7.56, -8.37, -8.37, -3.81, -3.81, -3.81, -5.46, -4.87, -4.87, -5.02, -5.02, -6.6, -5.99, -5.99, -5.64, -7.0, -6.47, -7.49, -6.8, -6.6, -6.1, -6.35, -5.19, -5.71, -6.13, -7.57, -8.78, -7.84, -6.93, -5.94, -5.41, -5.71, -4.38, -3.42, -3.12, -5.51, -10.46, -8.74, -4.18, -1.61, 0.0, 0.0, 1.0, 1.84, 2.33, 2.54, 3.0, 2.98, 4.46, 6.01, 8.94, 9.39, 9.39, 8.91, 8.48, 8.48, 8.48, 5.69, 5.1, 6.95, 3.8, 2.83, 4.4, 4.2, 4.0, 3.8, 7.6, 7.21, 5.95, 3.97, 1.18, 0.0, 2.49, 4.1, 6.54, 6.52, 5.69, 3.18, 0.0, -0.79, -1.65, 0.0, 0.0, 1.45, 9.83, 1.75, -0.0, -0.0, -2.69, -7.6, -8.49, -7.9, -4.2, -1.93, -6.45, -11.4, -9.7, -8.63, -8.55, -8.55, -8.55, -3.81, -3.81, -3.36, -3.36, -4.87, -4.87, -4.87, -5.02, -4.66, -6.17, -5.99, -5.64, -7.0, -6.47, -6.47, -7.0, -6.6, -7.06, -6.96, -8.16, -8.05, -8.33, -9.73, -9.66, -9.42, -7.23, -4.54, -3.13, -1.16, 0.0, 0.0, 0.0, 0.0, -12.33, -12.01, -7.4, -4.66, -1.61, -1.28, -1.02, 0.0, 0.0, 0.0, 1.26, 3.2, 3.6, 6.01, 8.0, 8.94, 8.94, 8.49, 8.49, 7.63, 8.06, 7.07, 5.69, 5.1, 0.0, 0.0, 0.0, 0.0, 0.0, 0.0, 6.01, 6.8, 5.06, 3.97, 2.82, 3.17, 3.49, 5.2, 5.73, 4.98, 1.69, -0.85, -3.39, -6.4, -6.4, -4.81, -2.94, 0.0, 0.0, -0.0, -0.0, -2.17, -4.71, -6.32, -8.49, -8.49, -6.01, -4.0, -3.04, -8.85, -9.83, -8.91, -8.05, -7.33, -7.33, -3.81, -3.36, -3.36, -3.36, -4.87, -4.87, -4.87, -5.02, -4.66, -6.17, -5.64, -5.64, -6.29, -6.47, -6.47, -6.02, -6.8, -6.6, -7.73, -8.51, -6.81, -4.54, -5.5, -7.71, -8.05, -6.28, -3.78, -1.73, 0.0, 0.0, 0.92, 0.0, 0.0, 0.0, 0.0, 0.0, -3.07, -1.96, -3.04, -2.42, -1.02, -0.99, 0.0, 0.0, 1.96, 2.88, 4.71, 7.6, 8.49, 8.05, 7.6, 8.05, 7.63, 7.63, 6.7, 5.69, 5.03, 1.75, -2.97, -6.32, -4.46, -2.06, 0.0, 0.0, 5.69, 5.37, 5.37, 3.4, 3.91, 4.83, 6.58, 7.19, 5.81, 1.6, -5.59, -8.51, -11.13, -10.87, -9.44, -5.99, -2.42, 0.0, 0.0, -0.0, -0.0, -0.0, -0.0, -0.0, -0.0, -8.91, -7.9, -2.82, -3.68, -8.48, -8.33, -7.47, -8.0, -8.0, -3.36, -3.36, -3.36, -3.36, -3.36, -4.87, -5.02, -5.02, -4.66, -6.17, -5.64, -5.64, -5.35, -6.47, -6.02, -6.02, -6.8, -6.18, -6.8, -7.78, -5.65, -3.69, -2.8, -2.98, -4.54, -4.49, -4.1, -1.83, -0.85, 0.0, 0.0, 0.0, -0.97, -1.37, -1.83, 0.0, 0.0, 0.0, -1.61, -1.28, -1.07, -1.02, -1.09, 0.0, 1.0, 2.29, 4.46, 8.05, 7.6, 7.15, 7.6, 7.6, 7.6, 7.21, 7.21, 6.32, 4.47, 4.46, 0.0, -5.37, -6.44, -3.8, -2.69, 0.0, 7.2, 5.37, 4.74, 3.72, 4.83, 6.32, 6.95, 4.6, 14.3, -0.0, -1.84, -9.83, -13.15, -13.39, -12.22, -9.22, -5.6, -1.45, 1.75, 8.4, 9.39, 9.39, 9.11, 8.4, 7.27, 3.68, -12.52, -7.9, -3.25, -7.2, -8.24, -7.37, -7.2, -7.2, -3.36, -3.36, -3.36, -3.36, -3.36, -4.87, -4.87, -4.52, -4.66, -6.17, -5.64, -5.81, -5.35, -6.47, -6.02, -6.02, -5.62, -6.18, -6.16, -6.81, -5.81, -4.79, -3.49, -3.38, -2.64, -2.87, -3.03, -2.87, -1.83, -1.69, -0.77, -0.77, -0.85, -2.0, -2.45, -1.46, 0.0, 0.0, 0.0, -1.16, -1.02, -0.98, -1.02, -1.14, 0.0, 1.07, 2.69, 8.06, 7.6, 7.6, 8.05, 7.6, 7.6, 7.6, 6.79, 5.95, 5.75, 5.59, 3.8, 0.0, -6.0, -5.95, -5.06, 7.15, 6.36, 4.84, 5.69, 4.96, 4.0, 2.06, 0.0, 0.0, 0.0, -0.0, -0.0, -2.49, -6.32, -12.52, -13.28, -10.86, -6.87, -2.71, 1.33, 6.01, 7.76, 8.6, 9.39, 9.39, 9.21, 5.21, -4.2, -8.49, -7.6, -6.8, -7.21, -7.37, -7.81, -7.81, -3.36, -3.36, -3.36, -3.36, -3.36, -3.36, -4.38, -4.52, -4.66, -6.17, -5.64, -5.64, -5.35, -5.35, -6.02, -6.02, -5.62, -5.46, -5.99, -6.34, -5.98, -5.96, -5.65, -4.43, -3.39, -3.39, -2.79, -2.87, -2.87, -1.78, -1.69, -1.65, -1.56, -1.83, -3.37, -2.45, -1.34, -1.3, -1.3, -1.09, -0.89, -0.85, -0.89, -1.02, -0.98, 0.0, 0.0, 1.98, 4.43, 6.14, 5.81, 7.6, 7.15, 7.15, 7.37, 6.79, 6.79, 5.81, 5.37, 4.46, 0.0, -4.74, 0.0, 6.26, 5.81, 7.2, 6.32, 5.63, 3.32, -1.32, -1.84, -1.69, 0.0, 0.0, 0.0, 0.0, -3.25, -7.9, -8.94, -11.21, -9.48, -3.96, 1.84, 7.27, 7.07, 7.4, 8.06, 8.77, 8.94, 8.94, 4.0, -4.71, -8.05, -7.6, -6.79, -6.94, -6.94, -6.94, -3.36, -3.36, -3.36, -3.36, -3.36, -3.36, -3.01, -4.52, -4.66, -4.66, -5.64, -5.64, -5.35, -5.35, -6.02, -6.02, -5.62, -5.62, -5.26, -6.16, -6.16, -5.98, -5.96, -5.65, -4.67, -4.31, -3.49, -2.79, -2.72, -2.72, -1.78, -1.69, -1.65, -1.93, -3.37, -3.62, -2.45, -2.45, -2.38, -2.2, -0.93, -0.82, -0.82, -0.89, -0.93, -1.02, -1.09, 0.0, 0.0, 1.98, 5.81, 5.81, 7.6, 7.6, 7.5, 7.45, 7.15, 7.15, 6.4, 5.69, 3.8, 0.0, 0.0, 7.15, 6.71, 8.3, 7.51, 5.63, 0.0, -1.14, -2.83, -2.6, -0.83, 0.0, 0.92, 0.0, -5.81, -13.01, -6.7, -8.94, -11.6, -6.4, 3.25, 9.2, 6.99, 7.2, 7.6, 7.28, 7.15, 7.6, 8.94, -2.69, -7.07, -7.6, -6.79, -6.79, -6.94, -6.94, -3.36, -3.36, -3.36, -3.36, -3.36, -3.36, -3.01, -4.38, -4.52, -4.24, -5.64, -5.64, -5.35, -5.19, -4.95, -6.02, -5.62, -5.62, -5.26, -5.26, -5.26, -5.81, -5.98, -5.81, -5.81, -4.67, -4.31, -3.59, -3.5, -2.65, -2.65, -2.52, -1.69, -1.78, -2.87, -4.54, -4.86, -3.72, -3.47, -3.28, -2.9, -1.71, -1.52, -0.82, -0.85, -0.93, -0.93, -0.93, -0.89, -0.95, 1.84, 5.36, 6.71, 7.15, 7.15, 7.15, 7.6, 7.15, 6.36, 5.24, 3.15, 2.21, 5.21, 7.15, 8.94, 8.3, 7.51, 2.83, 0.0, 0.0, -1.84, -2.47, -1.63, 0.0, 0.86, 0.89, -2.72, -14.53, -7.44, -7.2, -10.73, 0.0, 13.88, 10.58, 7.97, 7.08, 7.2, 6.63, 6.79, 8.33, 8.41, 8.49, -2.54, -8.06, -7.6, -7.37, -6.94, -6.94, -3.36, -3.36, -3.36, -3.36, -3.36, -3.36, -3.01, -4.38, -4.52, -4.11, -5.48, -5.64, -5.19, -5.19, -4.81, -4.81, -5.62, -5.62, -5.26, -5.26, -5.26, -4.95, -4.95, -5.81, -5.65, -5.65, -4.54, -4.8, -4.67, -3.59, -3.41, -2.58, -2.52, -2.52, -2.79, -4.26, -4.86, -5.0, -4.67, -4.42, -4.05, -2.72, -1.58, -0.7, -0.73, -1.39, -2.15, -1.62, -1.6, -1.58, -0.89, 1.3, 4.46, 7.15, 7.15, 6.71, 7.15, 7.15, 6.16, 5.58, 3.97, 4.14, 6.9, 7.31, 8.48, 9.2, 4.0, 1.47, 0.0, 0.0, -0.89, -1.76, -2.49, -2.6, -1.7, -1.77, -3.58, -14.03, -5.36, -2.4, -0.0, 11.16, 15.2, 11.62, 9.39, 9.39, 7.21, 6.9, 7.89, 8.05, 8.05, 8.49, 5.69, -4.46, -7.81, -8.05, -7.37, -7.37, -3.36, -3.36, -3.36, -3.36, -3.36, -3.01, -3.01, -4.52, -4.52, -4.52, -4.24, -5.64, -5.35, -5.35, -5.35, -4.81, -5.46, -5.46, -5.46, -5.11, -5.26, -4.95, -4.95, -4.95, -4.95, -4.95, -4.95, -5.09, -4.93, -3.79, -3.59, -3.41, -2.45, -2.45, -2.58, -4.01, -4.54, -5.0, -4.67, -4.54, -4.3, -3.68, -2.61, -1.76, -1.75, -1.43, -3.16, -4.87, -4.87, -2.97, -2.44, -0.72, 0.0, 4.46, 6.71, 6.71, 7.15, 7.6, 6.94, 6.57, 6.4, 7.47, 7.5, 8.38, 9.03, 7.81, 5.21, 0.0, -2.33, -2.17, -1.75, -1.69, -2.41, -3.29, -4.93, -5.31, -4.38, -10.8, -5.63, -2.17, -0.0, 8.53, 14.47, 13.86, 9.39, 7.6, 6.14, 7.45, 8.05, 7.6, 8.05, 7.5, 7.52, 3.4, -7.21, -8.05, -7.89, -7.89, -3.36, -3.36, -3.36, -3.36, -3.36, -3.01, -3.01, -4.52, -4.52, -4.52, -4.11, -5.64, -5.19, -5.35, -5.5, -4.95, -4.81, -5.46, -5.46, -5.11, -5.26, -5.26, -4.95, -4.95, -4.95, -4.95, -4.81, -4.95, -5.09, -3.9, -3.69, -3.49, -3.32, -2.39, -2.58, -3.79, -4.54, -4.86, -5.0, -4.67, -4.42, -3.93, -3.44, -2.89, -1.95, -1.68, -4.12, -8.23, -9.48, -7.68, -5.75, -4.0, -1.19, 0.0, 4.46, 6.71, 7.15, 7.1, 7.54, 7.1, 6.64, 7.5, 7.5, 8.38, 7.6, 7.07, 6.01, 1.93, -2.09, -4.5, -4.2, -3.51, -1.64, -3.23, -4.98, -6.09, -5.64, -3.18, -6.2, -5.7, -0.0, 1.69, 9.17, 13.88, 12.96, 8.49, 8.33, 7.89, 6.71, 7.15, 7.6, 7.89, 8.06, 8.05, -0.0, -8.49, -8.33, -8.33, -3.25, -3.25, -3.36, -3.36, -3.36, -3.01, -3.01, -4.52, -4.52, -4.66, -4.24, -4.11, -5.19, -5.19, -5.35, -4.95, -4.95, -4.6, -5.62, -5.26, -5.26, -5.26, -4.95, -4.95, -4.95, -4.95, -5.11, -4.05, -4.18, -3.79, -4.54, -4.41, -4.19, -3.22, -3.32, -3.49, -4.26, -4.86, -4.86, -4.67, -4.54, -4.18, -4.36, -3.85, -3.21, -4.25, -4.43, -7.93, -11.44, -11.99, -8.22, -5.46, -3.0, -1.35, 0.0, 4.46, 7.01, 7.52, 7.54, 7.1, 6.64, 7.21, 8.06, 7.28, 6.79, 5.69, 5.37, 2.06, 0.0, -4.0, -4.5, -3.63, -1.76, -1.61, -3.38, -6.27, -6.43, -4.36, -2.51, -4.32, -5.0, -1.76, -0.0, 6.0, 11.16, 11.62, 11.21, 9.2, 6.01, 6.71, 7.6, 7.37, 6.52, 7.06, 8.94, -8.94, -8.67, -8.67, -3.25, -3.25, -3.25, -3.36, -3.36, -3.01, -3.01, -4.52, -4.52, -4.66, -4.24, -4.24, -4.24, -5.35, -5.35, -4.95, -4.95, -4.73, -4.73, -4.73, -5.41, -5.41, -5.26, -4.95, -4.95, -4.95, -5.11, -5.14, -5.5, -4.66, -5.49, -5.36, -4.54, -4.19, -3.22, -3.49, -3.9, -4.54, -4.86, -4.86, -4.54, -4.3, -3.81, -3.76, -4.05, -4.48, -3.87, -2.43, -1.96, -4.65, -6.17, -4.14, -2.8, -2.6, -1.55, 0.88, 3.79, 6.64, 7.21, 6.88, 5.6, 6.8, 6.79, 6.44, 6.01, 4.83, 4.56, 1.95, 0.0, 0.0, -0.94, -2.06, -1.45, 0.0, -0.97, -5.07, -7.21, -6.84, -4.75, -3.32, -5.98, -6.7, -1.98, -0.0, 4.1, 11.99, 13.15, 8.31, 2.71, 0.0, 8.05, 7.6, 6.8, 5.72, 8.24, 0.0, -8.06, -8.06, -3.25, -3.25, -3.25, -3.36, -3.36, -3.01, -3.01, -3.1, -4.52, -4.66, -4.24, -4.24, -4.24, -5.48, -5.35, -4.95, -4.95, -4.95, -4.6, -4.73, -4.42, -5.41, -5.41, -4.95, -4.81, -4.81, -5.11, -5.14, -5.46, -6.02, -5.48, -5.81, -5.98, -4.8, -3.69, -3.69, -3.9, -5.56, -4.86, -4.86, -4.54, -3.37, -3.93, -3.32, -3.39, -4.08, -3.66, -2.41, -0.92, -0.97, -0.89, -1.01, -1.98, -2.16, -1.05, 0.0, 0.0, 3.22, 5.37, 5.6, 5.05, 5.59, 6.01, 6.08, 6.44, 6.44, 5.37, 2.82, 1.67, 1.47, 2.17, 1.04, 0.0, -0.8, -0.87, -1.16, -3.41, -6.98, -6.31, -5.2, -3.82, -5.8, -13.41, -3.25, -0.0, -0.0, 14.75, 4.52, 0.0, 0.0, 0.0, 0.0, 7.6, 5.95, 5.36, 8.06, -5.69, -5.69, -3.25, -3.25, -3.25, -3.25, -3.36, -3.01, -3.01, -3.1, -4.52, -4.66, -4.24, -4.37, -4.24, -4.24, -5.19, -5.35, -4.95, -4.95, -4.6, -4.73, -4.73, -4.54, -5.41, -5.41, -4.81, -4.81, -5.11, -4.96, -5.81, -5.48, -5.48, -5.11, -5.26, -4.95, -3.9, -3.69, -3.9, -5.41, -5.23, -5.23, -4.86, -3.47, -3.18, -3.56, -2.99, -3.47, -3.73, -3.91, -3.36, -2.22, -1.39, -1.54, -0.85, -1.01, -1.03, 0.0, 0.0, 0.96, 2.68, 3.84, 5.72, 6.08, 5.37, 6.7, 6.4, 6.8, 6.08, 4.29, 3.8, 3.32, 3.35, 3.11, 0.0, -2.51, -2.56, 0.0, 0.0, 0.0, -4.93, -5.8, -5.15, -4.11, -3.93, -12.39, -4.38, -0.0, 0.0, 0.0, 0.0, 0.0, 0.0, 0.0, 0.0, 5.37, 3.97, 6.44, 3.6, 3.6, -3.25, -3.25, -3.25, -3.25, -3.36, -3.01, -3.01, -3.1, -4.66, -4.66, -4.37, -4.37, -4.37, -4.24, -3.88, -5.19, -4.81, -4.81, -4.81, -4.6, -4.73, -4.42, -5.41, -5.41, -5.26, -4.81, -5.11, -4.96, -5.81, -5.99, -4.81, -4.81, -4.81, -3.92, -4.03, -3.79, -4.15, -4.73, -5.23, -5.23, -5.23, -3.62, -3.42, -2.81, -2.37, -2.82, -3.04, -4.0, -4.0, -3.87, -2.76, -2.15, -2.28, -1.67, -1.0, 0.0, 0.0, 1.23, 1.99, 2.3, 3.49, 6.08, 5.37, 6.32, 7.63, 7.63, 5.72, 4.56, 4.83, 4.37, 3.17, 1.62, 0.0, -1.7, -1.72, 0.0, 0.92, 2.15, 0.0, -3.58, -5.02, -4.52, -4.24, -3.56, -11.6, -9.8, -14.75, -4.1, -2.1, 0.0, 0.0, 0.0, 0.0, 0.0, 3.2, 3.4, 3.8, 3.8, -3.25, -3.25, -3.25, -3.25, -3.36, -3.01, -3.1, -3.1, -4.66, -4.66, -4.37, -4.37, -4.37, -4.24, -3.88, -5.19, -4.81, -4.81, -4.81, -4.6, -4.6, -4.73, -4.42, -5.41, -5.26, -4.81, -4.81, -4.96, -4.96, -5.11, -5.11, -4.81, -4.66, -3.8, -3.8, -3.69, -4.03, -4.3, -5.09, -5.5, -5.5, -3.9, -2.38, -1.9, -2.37, -2.14, -2.76, -3.14, -4.24, -4.1, -3.68, -3.46, -2.89, -2.28, -1.52, -0.84, 0.0, 0.0, 0.96, 2.0, 3.07, 3.43, 4.83, 5.06, 6.8, 6.01, 5.37, 5.1, 3.8, 3.8, 2.17, 2.21, 1.33, 0.0, -0.83, -0.81, 0.0, 0.0, 0.0, -2.72, -5.23, -6.65, -5.2, -3.92, -5.0, -7.9, -6.2, -4.2, -1.4, -1.32, 0.0, 0.0, 0.0, 0.0, 0.0, 0.0, 3.15, 3.15, -3.14, -3.14, -3.25, -3.25, -3.36, -3.01, -3.1, -3.1, -3.2, -4.66, -4.37, -4.37, -4.37, -4.37, -3.88, -3.88, -5.19, -4.81, -4.81, -4.6, -4.6, -4.6, -4.42, -4.42, -5.26, -5.11, -4.81, -4.96, -4.96, -5.11, -5.11, -5.11, -4.66, -4.66, -3.8, -3.58, -3.58, -4.18, -4.95, -5.5, -5.5, -4.23, -2.72, -2.54, -2.15, -1.98, -2.66, -3.53, -4.55, -5.11, -4.75, -4.01, -3.69, -3.11, -2.17, -2.12, -1.49, 0.0, 0.0, 0.7, 2.2, 2.73, 4.56, 5.06, 6.08, 6.32, 5.37, 4.83, 3.8, 3.6, 2.99, 2.54, 1.45, 0.0, -0.92, -2.45, -2.45, -2.47, -2.97, -3.68, -5.01, -6.21, -6.98, -6.42, -4.4, -3.11, -3.65, -1.4, -1.32, -1.07, -1.07, 0.0, 0.0, 0.0, 0.0, 0.0, 0.0, 1.95, -3.14, -3.14, -3.25, -3.25, -3.36, -3.01, -3.1, -3.1, -3.2, -4.66, -4.37, -4.37, -4.37, -4.37, -4.0, -3.88, -5.04, -4.81, -4.81, -4.95, -4.6, -4.6, -4.6, -4.42, -4.3, -5.11, -4.96, -4.96, -4.96, -4.96, -5.11, -4.96, -4.96, -4.66, -4.66, -3.8, -3.47, -3.92, -4.47, -5.35, -5.81, -5.98, -4.24, -3.82, -2.06, -2.46, -3.68, -4.77, -5.38, -5.8, -5.25, -4.47, -4.13, -3.11, -3.06, -2.23, -1.49, -1.49, 0.0, 0.0, 1.35, 2.2, 3.4, 4.02, 4.29, 6.01, 6.01, 5.37, 5.69, 4.83, 3.4, 2.06, 0.0, 0.0, 0.0, -1.89, -3.32, -4.24, -4.41, -4.34, -3.62, -3.47, -6.2, -8.23, -6.64, -3.49, -2.97, -2.97, -2.95, -2.49, -1.05, -0.89, 0.0, 0.0, 0.0, 0.0, 0.0, 0.0, -3.14, -3.14, -3.14, -3.25, -3.36, -3.36, -3.1, -3.1, -3.2, -3.2, -3.3, -4.37, -4.37, -4.37, -4.37, -3.88, -3.88, -5.04, -4.81, -4.81, -4.6, -4.6, -4.6, -4.3, -4.3, -5.11, -4.96, -4.96, -4.81, -4.81, -4.96, -4.96, -4.96, -4.96, -4.52, -4.66, -3.69, -3.69, -4.18, -4.81, -5.81, -5.81, -5.99, -4.9, -3.98, -4.24, -5.63, -6.69, -7.36, -7.26, -5.8, -4.64, -4.13, -3.51, -3.06, -2.44, -2.18, -1.55, -0.69, 0.0, 0.7, 1.35, 2.11, 3.4, 4.22, 5.69, 6.32, 5.37, 5.69, 4.83, 2.99, 1.58, 0.0, 0.0, 0.0, 0.0, -1.9, -4.21, -5.28, -4.98, -4.1, -3.07, -2.95, -4.4, -6.95, -7.27, -5.52, -3.68, -3.19, -3.19, -2.49, -1.0, -0.94, 0.0, 0.0, 0.0, -2.8, 0.0, -3.14, -3.14, -3.14, -3.25, -3.25, -3.36, -3.01, -3.1, -3.1, -3.2, -3.2, -4.24, -4.37, -4.37, -4.24, -3.88, -3.88, -5.04, -4.66, -4.81, -4.81, -4.47, -4.47, -4.3, -4.3, -5.26, -4.96, -4.81, -4.81, -4.81, -4.81, -4.96, -4.96, -4.96, -4.81, -4.52, -3.69, -3.57, -3.93, -5.3, -6.1, -6.8, -6.95, -6.44, -6.45, -6.79, -7.11, -8.68, -8.85, -8.41, -7.44, -5.99, -4.13, -3.36, -3.32, -2.44, -2.18, -1.55, -0.74, 0.0, 0.0, 1.35, 3.2, 3.97, 5.37, 6.32, 6.32, 6.01, 5.37, 2.99, 2.99, 0.0, 0.0, 0.0, 0.0, 1.21, 0.0, -3.37, -5.57, -5.52, -5.95, -5.3, -4.6, -5.43, -6.45, -8.22, -8.22, -5.98, -5.2, -3.19, -2.95, -2.28, -2.06, -1.39, -1.84, -2.54, -2.12, -2.12, -3.04, -3.04, -3.14, -3.14, -3.25, -3.25, -3.01, -3.1, -3.1, -3.1, -3.2, -4.24, -4.24, -4.24, -4.24, -3.88, -3.88, -5.04, -5.04, -4.66, -4.81, -4.47, -4.47, -4.47, -4.18, -4.18, -4.96, -4.81, -4.81, -4.66, -4.66, -4.66, -4.81, -4.81, -4.81, -4.66, -4.66, -3.46, -3.81, -5.14, -5.92, -6.4, -7.13, -6.72, -6.87, -6.57, -6.28, -6.37, -7.93, -8.31, -7.44, -6.21, -4.07, -3.88, -3.06, -3.15, -2.54, -1.65, -0.79, -0.78, 0.0, 0.7, 1.94, 3.4, 5.37, 6.32, 5.69, 5.69, 3.2, 2.99, 1.4, 0.0, -1.84, -1.05, -1.28, 0.0, 0.0, 0.0, -1.42, -5.4, -7.36, -7.26, -6.92, -6.44, -6.63, -7.54, -5.75, -5.75, -4.15, -3.53, -4.4, -3.87, -2.39, -2.7, -3.15, -2.06, -2.06, -2.06, -3.04, -3.04, -3.14, -3.14, -3.25, -3.25, -3.36, -3.01, -3.01, -3.1, -3.1, -3.2, -4.24, -4.24, -4.24, -4.24, -3.88, -3.88, -5.04, -4.66, -4.81, -4.47, -4.47, -4.47, -4.47, -4.18, -4.96, -4.81, -4.66, -4.66, -4.51, -4.81, -4.81, -4.66, -4.81, -4.51, -4.51, -4.51, -3.68, -4.81, -5.33, -5.73, -6.42, -6.08, -5.77, -5.8, -4.76, -3.69, -3.53, -5.6, -5.4, -5.43, -4.2, -3.88, -3.7, -3.32, -2.54, -1.65, -1.65, -0.83, 0.0, 0.76, 1.94, 4.56, 5.37, 5.37, 5.69, 4.46, 3.2, 1.49, 0.0, 0.0, -1.26, -2.04, -1.84, -1.69, 0.0, 1.77, 2.13, 0.0, -1.73, -5.49, -6.8, -6.2, -5.8, -4.75, -3.53, -3.39, -3.39, -3.07, -3.07, -2.82, -2.82, -2.58, -2.83, -3.32, -3.32, -3.32, -3.04, -3.04, -3.14, -3.14, -3.25, -3.25, -3.36, -3.36, -3.1, -3.1, -3.1, -3.2, -4.24, -4.24, -4.24, -4.24, -3.88, -3.88, -5.04, -4.66, -4.81, -4.81, -4.47, -4.47, -4.47, -4.18, -4.96, -4.81, -4.66, -4.51, -4.51, -4.81, -4.81, -4.81, -4.51, -4.51, -4.36, -4.51, -4.51, -4.51, -5.16, -5.55, -6.21, -5.86, -5.86, -5.1, -4.46, -4.0, -3.68, -3.18, -3.53, -3.25, -3.32, -3.32, -3.51, -3.15, -2.54, -1.75, -0.84, 0.0, 0.0, 0.76, 2.11, 2.98, 4.83, 5.69, 3.6, 2.66, 2.82, 0.0, 0.0, -1.4, -1.26, -1.04, -0.98, -0.85, 0.0, 1.65, 2.55, 2.98, 2.72, 1.63, 0.0, -2.02, -3.36, -3.04, -3.19, -3.07, -2.6, -2.6, -2.28, -2.58, -2.7, -2.7, -2.97, -2.69, -2.69, -2.69, -3.04, -3.04, -3.14, -3.14, -3.14, -3.25, -3.25, -3.36, -3.1, -3.1, -3.1, -3.1, -4.24, -4.24, -4.24, -4.24, -3.88, -3.88, -5.04, -5.04, -4.66, -4.81, -4.47, -4.47, -4.47, -4.47, -4.96, -4.81, -4.66, -4.66, -4.51, -4.65, -4.65, -4.65, -4.65, -4.36, -4.36, -4.36, -4.51, -4.36, -4.65, -4.99, -6.21, -6.24, -5.86, -5.4, -5.2, -4.81, -4.36, -3.82, -2.94, -1.93, -1.75, -1.67, -2.31, -2.31, -1.75, -0.89, 0.0, 0.0, 0.89, 1.6, 2.11, 2.66, 3.72, 3.8, 1.95, 1.4, 1.49, 0.0, 0.0, 0.0, 0.0, 0.0, 0.0, 0.0, 0.0, 0.0, 0.83, 2.45, 3.8, 3.59, 1.58, 0.0, -1.6, -1.58, -3.04, -4.08, -4.4, -3.68, -3.82, -3.52, -3.7, -2.58, -2.58, -2.83, -2.83, -2.83, -3.04, -3.04, -3.14, -3.14, -3.25, -3.25, -3.25, -3.36, -3.01, -3.1, -3.1, -3.1, -4.66, -4.24, -4.24, -4.24, -4.24, -3.88, -5.04, -5.04, -4.66, -4.81, -4.81, -4.47, -4.47, -4.47, -5.3, -4.81, -4.66, -4.66, -4.51, -4.65, -4.65, -4.49, -4.49, -4.49, -4.49, -4.21, -4.36, -4.36, -4.65, -4.99, -6.21, -6.48, -5.63, -5.4, -5.29, -4.65, -5.25, -4.47, -3.67, -2.59, -1.6, -0.77, -1.58, -1.75, -0.89, 0.0, 0.0, 0.0, 0.89, 0.89, 1.47, 2.4, 2.98, 4.71, 2.4, 0.0, 0.0, 0.0, 0.0, 1.67, 0.0, 0.0, 0.0, 0.0, 0.0, 0.0, 0.89, 1.77, 2.45, 2.88, 1.34, 0.0, -1.45, -3.07, -4.24, -5.2, -5.54, -5.1, -4.44, -4.44, -4.66, -4.66, -3.87, -3.87, -3.87, -3.87, -3.04, -3.04, -3.14, -3.14, -3.14, -3.25, -3.36, -3.36, -3.01, -3.01, -3.1, -3.1, -4.52, -4.24, -4.24, -4.24, -4.24, -3.88, -5.04, -4.89, -4.89, -4.66, -4.81, -4.81, -4.47, -4.47, -4.34, -5.14, -4.97, -4.66, -4.51, -4.81, -4.65, -4.49, -4.49, -4.33, -4.33, -4.49, -4.21, -4.21, -4.21, -4.49, -5.6, -6.48, -5.63, -5.72, -5.6, -4.93, -5.06, -4.3, -3.67, -2.71, -1.68, -1.47, -0.73, -0.76, -0.84, 0.0, 0.0, 0.0, 0.0, 0.0, 0.88, 1.55, 2.53, 2.54, 2.4, 0.0, 0.0, 0.0, 0.0, 1.67, 0.0, 0.0, 0.0, 0.0, 0.0, 0.0, 0.89, 0.86, 0.83, 0.84, 1.16, 0.0, -1.51, -4.47, -4.98, -4.36, -5.69, -4.98, -5.72, -5.46, -5.46, -6.01, -5.21, -5.21, -5.21, -5.21, -3.04, -3.04, -3.14, -3.14, -3.14, -3.25, -3.36, -3.36, -3.36, -3.1, -3.1, -3.1, -4.66, -4.66, -4.24, -4.24, -4.24, -3.88, -5.04, -5.04, -5.04, -4.66, -4.81, -4.81, -4.47, -4.34, -4.34, -5.14, -4.97, -4.81, -4.81, -4.81, -4.65, -4.49, -4.49, -4.33, -4.33, -4.33, -4.33, -4.21, -4.21, -4.49, -5.6, -5.78, -5.86, -5.93, -5.8, -4.93, -4.87, -4.44, -4.25, -3.36, -2.59, -2.28, -0.71, -0.73, -0.76, 0.0, 0.0, 0.0, 0.0, 0.0, 0.0, 0.96, 1.83, 2.12, 3.0, 1.4, 0.0, -1.67, -1.47, -1.54, 0.0, 0.0, 0.0, 0.0, 0.0, 0.0, 0.0, 0.89, 0.0, 0.0, 0.86, 1.16, -1.37, -6.11, -4.0, -3.4, -2.67, -3.99, -4.94, -4.21, -4.71, -5.15, -5.15, -5.15, -5.15, -5.15, -3.04, -3.04, -3.14, -3.14, -3.14, -3.25, -3.36, -3.36, -3.36, -3.1, -3.1, -3.1, -4.66, -4.66, -4.24, -4.24, -4.24, -4.24, -5.04, -5.04, -5.04, -4.66, -4.81, -4.81, -4.66, -4.34, -4.34, -5.14, -4.97, -4.97, -4.81, -4.81, -4.65, -4.49, -4.49, -4.33, -4.33, -4.33, -4.33, -4.33, -4.06, -4.33, -4.64, -5.78, -6.48, -6.31, -6.15, -5.93, -5.2, -5.14, -4.92, -4.07, -4.07, -2.17, -1.4, -0.67, -0.73, -0.76, 0.0, 0.0, 0.0, 0.0, 0.0, 0.0, 0.0, 1.98, 1.52, 1.63, 0.0, -2.99, -3.15, -2.83, -2.97, 0.0, 0.0, 0.0, 0.0, 0.0, 0.0, 0.0, 0.0, 0.0, 0.0, 0.0, 0.0, -6.8, -3.11, 0.0, 0.0, 0.0, -1.98, -3.0, -2.8, -3.0, -4.19, -4.19, -4.19, -4.19, -3.04, -3.44, -3.04, -3.14, -3.14, -3.14, -3.25, -3.36, -3.36, -3.1, -3.1, -4.66, -4.66, -4.66, -4.66, -4.24, -4.24, -5.48, -5.04, -5.04, -5.04, -5.04, -4.66, -4.66, -4.66, -4.66, -5.3, -5.14, -4.97, -4.97, -4.81, -4.81, -4.65, -4.65, -4.49, -4.33, -4.33, -4.17, -4.17, -4.17, -4.06, -4.06, -4.33, -5.2, -5.78, -6.31, -6.53, -5.93, -6.08, -5.35, -5.29, -5.06, -4.4, -3.06, -2.06, -1.95, -1.32, -1.36, -0.69, -0.67, -0.74, -0.72, -0.76, 0.0, 0.0, 0.0, 0.0, 1.52, 0.0, -1.4, -2.82, -4.37, -5.86, -6.14, 0.0, 0.0, 0.0, 0.0, 0.0, 0.0, 0.0, 0.0, 0.0, 0.0, -5.04, 0.0, 5.95, 7.63, 4.47, 1.55, 0.0, 0.0, -1.52, -1.19, -1.41, -3.2, -3.2, -3.2, -3.44, -3.44, -3.44, -3.14, -3.14, -3.14, -3.25, -3.36, -3.36, -3.47, -3.1, -4.66, -4.66, -4.66, -4.66, -4.24, -4.24, -5.48, -5.48, -5.04, -5.04, -5.04, -5.04, -4.66, -4.66, -4.66, -5.14, -5.14, -4.97, -4.81, -4.81, -4.65, -4.65, -4.65, -4.49, -4.64, -4.33, -4.17, -4.17, -4.17, -3.91, -3.91, -4.17, -4.47, -5.57, -6.24, -6.08, -6.08, -6.08, -5.35, -5.52, -5.29, -4.4, -3.88, -3.06, -2.9, -2.12, -2.12, -1.36, -1.28, -0.62, -0.64, -0.72, -0.82, -0.96, 0.0, 0.0, 0.0, 1.32, 0.0, -1.25, -3.6, -5.31, -6.32, -3.65, -1.54, 0.0, 0.0, -1.04, -1.68, -1.76, -0.82, -0.85, -2.72, -5.28, -0.0, 6.21, 6.64, 5.81, 3.16, 2.2, 3.2, 4.74, 3.79, 3.4, 0.0, 0.0, 0.0, -3.44, -3.44, -3.44, -3.04, -3.14, -3.14, -3.25, -3.25, -3.36, -3.36, -3.1, -4.52, -4.66, -4.66, -4.66, -4.24, -4.24, -5.48, -5.48, -5.19, -5.04, -5.04, -5.04, -4.66, -4.66, -5.5, -5.5, -5.14, -4.97, -4.81, -4.81, -4.65, -4.65, -4.49, -4.81, -4.64, -4.64, -4.47, -4.17, -4.01, -4.17, -3.91, -4.17, -4.47, -5.35, -6.0, -6.24, -5.86, -6.24, -6.41, -5.52, -5.7, -4.78, -4.4, -4.2, -3.06, -2.9, -2.9, -2.12, -2.0, -1.2, -1.23, -1.36, -1.52, -1.72, -0.89, 0.0, 0.0, 1.18, 1.18, 0.0, -1.4, -1.4, -3.6, -4.56, -3.32, -2.83, -2.17, -2.97, -2.7, -2.7, -1.76, -1.64, -2.65, -7.57, -0.0, 5.75, 5.69, 3.48, 4.02, 4.92, 6.4, 7.6, 7.6, 8.94, 6.32, 6.32, 6.32, -3.44, -3.44, -3.44, -3.44, -3.04, -3.14, -3.25, -3.36, -3.36, -3.36, -3.36, -4.52, -4.66, -4.66, -4.66, -4.66, -4.24, -5.48, -5.48, -5.64, -5.19, -5.04, -5.04, -5.04, -5.5, -5.5, -5.5, -5.33, -4.97, -4.81, -4.81, -4.65, -4.65, -4.49, -4.81, -4.64, -4.64, -4.47, -4.47, -4.01, -4.01, -3.91, -4.17, -4.01, -5.35, -5.14, -5.76, -5.76, -5.76, -6.15, -5.52, -5.7, -4.78, -4.78, -4.4, -3.49, -3.32, -3.32, -3.15, -2.82, -2.66, -1.93, -1.8, -2.2, -1.84, -1.84, -0.95, 0.0, 0.0, 0.0, 0.0, 0.0, 0.0, 0.0, -2.17, -4.37, -3.6, -4.44, -3.81, -3.81, -3.32, -3.49, -1.7, -2.31, -9.92, -0.0, 4.37, 4.02, 4.11, 3.48, 6.26, 8.05, 8.05, 8.94, 9.39, 0.0, 0.0, 0.0, -3.44, -3.44, -3.44, -3.44, -3.04, -3.04, -3.14, -3.25, -3.25, -3.25, -3.36, -4.52, -4.52, -4.66, -4.66, -4.66, -4.24, -5.48, -5.48, -5.64, -5.64, -5.19, -5.19, -6.1, -5.5, -5.5, -5.5, -5.33, -4.97, -4.81, -4.65, -4.65, -4.49, -4.81, -4.81, -4.64, -4.64, -4.47, -4.3, -4.01, -4.01, -4.01, -4.01, -4.01, -4.13, -5.14, -5.76, -5.76, -5.52, -5.9, -5.7, -5.7, -4.99, -4.78, -4.78, -3.49, -3.49, -3.32, -3.15, -2.99, -2.99, -2.66, -2.49, -2.12, -2.35, -1.84, -1.84, -0.95, 0.0, 0.0, 0.0, 0.0, 0.0, 0.0, -1.47, -3.32, -4.96, -5.2, -4.74, -4.34, -4.34, -3.49, -2.49, -2.06, -9.77, -3.69, 3.4, 3.22, 3.22, 2.98, 3.2, 6.01, 9.39, 0.0, 0.0, 0.0, 0.0, 0.0, -3.44, -3.44, -3.44, -3.44, -3.56, -3.14, -3.14, -3.14, -3.25, -3.25, -4.87, -5.02, -4.52, -4.66, -4.66, -4.66, -5.99, -5.48, -5.48, -5.48, -5.64, -5.19, -5.19, -6.1, -5.92, -5.5, -5.5, -5.33, -5.16, -5.16, -4.99, -4.81, -4.81, -4.81, -4.64, -4.64, -4.64, -4.47, -4.47, -4.3, -4.01, -4.01, -4.01, -4.01, -4.13, -5.14, -6.15, -5.52, -5.52, -5.9, -6.31, -5.7, -5.45, -4.78, -3.99, -3.99, -3.49, -3.32, -3.32, -3.15, -3.27, -2.82, -2.66, -2.9, -2.9, -2.51, -2.82, -1.01, -0.95, 0.0, 0.0, -1.07, -1.32, -1.32, -2.69, -3.8, -5.44, -5.2, -4.74, -4.34, -4.34, -3.32, -3.36, -2.6, -8.94, -6.8, 1.39, 2.8, 3.22, 3.4, 4.96, 4.2, -0.0, -0.0, -0.0, -0.0, -0.0, -0.0, -3.44, -3.44, -3.44, -3.44, -3.56, -3.56, -3.14, -3.25, -3.25, -3.25, -4.87, -4.87, -5.02, -4.66, -4.66, -4.66, -5.99, -5.48, -5.48, -5.64, -5.64, -5.64, -6.29, -6.1, -5.92, -5.5, -5.33, -5.33, -5.16, -4.99, -4.99, -4.81, -4.81, -4.64, -4.64, -4.64, -4.47, -4.47, -4.47, -4.3, -4.01, -4.01, -4.01, -4.5, -4.8, -5.14, -5.52, -5.9, -5.9, -5.9, -6.31, -5.46, -5.45, -5.21, -3.99, -3.99, -3.49, -3.49, -3.32, -3.15, -3.27, -3.69, -3.47, -3.47, -3.47, -3.2, -2.51, -1.96, -1.01, -1.18, 0.0, 0.0, 0.0, -1.25, -3.6, -4.71, -5.44, -5.53, -4.5, -3.45, -3.63, -3.49, -3.36, -3.39, -6.88, -12.27, -0.0, 2.54, 1.98, 3.15, 4.2, 3.11, 4.2, -0.0, -0.0, -0.0, -0.0, -0.0, -3.96, -3.96, -3.44, -3.44, -3.56, -3.56, -3.14, -3.25, -3.25, -3.25, -4.87, -4.87, -5.02, -4.52, -4.66, -4.52, -5.81, -5.99, -5.48, -5.48, -5.64, -6.8, -6.29, -6.29, -5.92, -5.73, -6.2, -6.2, -6.0, -5.8, -5.8, -5.6, -5.6, -5.4, -5.4, -5.4, -5.4, -5.2, -5.2, -5.0, -5.0, -4.68, -4.5, -4.5, -4.8, -4.44, -5.29, -5.9, -5.9, -5.9, -6.31, -5.46, -5.21, -5.21, -4.4, -3.81, -3.81, -3.49, -3.49, -3.32, -4.12, -3.91, -3.69, -3.47, -3.47, -3.79, -3.2, -2.99, -1.84, -1.73, -0.69, 0.0, 0.0, 0.0, -1.07, -3.17, -4.21, -4.94, -4.74, -3.63, -3.63, -3.49, -3.51, -3.39, -5.63, -15.2, -2.28, -0.0, 1.4, 1.4, 1.54, 1.93, 3.11, -0.0, -0.0, -2.97, -2.97, -2.97, -3.96, -3.96, -3.96, -3.44, -3.44, -3.56, -3.56, -3.14, -3.25, -4.71, -4.87, -4.87, -5.02, -5.02, -4.52, -5.81, -5.81, -5.81, -5.48, -5.48, -6.6, -6.8, -6.8, -6.1, -5.92, -6.64, -6.64, -6.0, -6.0, -5.8, -5.8, -5.6, -5.4, -5.4, -5.4, -5.4, -5.4, -5.2, -5.2, -5.2, -5.0, -5.0, -4.68, -4.5, -4.8, -4.44, -5.29, -5.29, -5.9, -5.9, -6.04, -5.46, -5.21, -5.21, -4.4, -3.81, -3.81, -3.32, -3.49, -4.0, -4.0, -4.12, -3.91, -3.69, -3.69, -4.03, -4.03, -3.4, -2.83, -2.67, -1.45, 0.0, 0.0, 0.0, 0.0, -1.07, -2.83, -4.94, -5.53, -5.36, -4.34, -4.4, -4.25, -4.13, -5.8, -13.03, -8.58, -3.68, -0.0, -0.0, -0.0, -0.0, -0.0, -0.0, -0.0, -2.83, -2.83, -2.83, -3.96, -3.96, -4.1, -4.1, -3.56, -3.56, -3.56, -3.56, -3.14, -4.71, -4.71, -4.87, -5.02, -5.02, -5.81, -5.81, -5.81, -5.81, -5.81, -6.6, -6.6, -6.6, -6.6, -6.1, -6.85, -6.64, -6.64, -6.42, -6.42, -5.8, -5.8, -5.6, -5.4, -5.4, -5.4, -5.57, -5.57, -5.57, -5.2, -5.0, -5.0, -5.0, -5.0, -3.85, -4.13, -4.44, -4.8, -5.29, -5.9, -5.9, -5.46, -5.46, -5.21, -5.21, -4.98, -4.2, -3.81, -3.63, -3.32, -4.0, -4.0, -4.12, -4.12, -3.91, -4.56, -4.56, -4.56, -4.26, -3.6, -3.4, -2.35, -1.26, 0.0, 0.0, 0.0, -1.07, -2.83, -4.94, -5.53, -5.36, -6.04, -5.29, -4.92, -5.14, -5.4, -9.16, -13.59, -7.54, -4.15, -1.93, -1.54, -0.0, -1.54, -1.75, -2.17, -2.83, -2.83, -2.83, -3.96, -3.96, -4.1, -4.1, -3.56, -3.56, -3.56, -3.56, -3.14, -4.71, -4.71, -4.87, -5.02, -5.02, -5.81, -5.81, -5.81, -5.81, -5.81, -6.6, -6.6, -6.6, -6.6, -6.1, -6.85, -6.64, -6.64, -6.42, -6.42, -5.8, -5.8, -5.6, -5.4, -5.4, -5.4, -5.57, -5.57, -5.57, -5.2, -5.0, -5.0, -5.0, -5.0, -3.85, -4.13, -4.44, -4.8, -5.29, -5.9, -5.9, -5.46, -5.46, -5.21, -5.21, -4.98, -4.2, -3.81, -3.63, -3.32, -4.0, -4.0, -4.12, -4.12, -3.91, -4.56, -4.56, -4.56, -4.26, -3.6, -3.4, -2.35, -1.26, 0.0, 0.0, 0.0, -1.07, -4.21, -4.94, -5.53, -5.36, -6.04, -5.9, -5.76, -5.14, -5.0, -6.87, -11.5, -11.62, -7.26, -4.15, -3.82, -1.54, -1.54, -1.84, -4.2, -5.21, -5.21, -5.21]}]